[{"header": {"dx": 0.06612293990616946, "dy": 0.0552356325346848, "nx": 98, "ny": 59, "la1": 35.046912555036876, "la2": 31.78801023549047, "lo1": -121.43107172385933, "lo2": -114.95102361305473, "refTime": "2026041023", "parameterCategory": 1, "parameterNumber": 2}, "data": [1.96, 1.83, 2.72, 2.81, 2.81, 3.57, 3.36, 3.47, 4.04, 4.91, 5.28, 5.68, 7.1, 7.48, 6.83, 6.59, 5.43, 3.82, 3.77, 3.53, 3.53, 4.72, 5.14, 5.76, 6.84, 6.7, 5.72, 5.86, 4.68, 4.17, 4.17, 4.17, 4.33, 5.0, 2.54, -0.0, -7.15, 0.0, 7.6, 4.46, 3.49, 2.94, 2.52, 4.1, 5.81, 5.99, 7.8, 9.54, 8.87, 8.94, 8.18, 8.95, 9.8, 10.58, 10.58, 10.58, 10.24, 10.3, 10.65, 10.65, 11.09, 11.39, 10.73, 9.92, 8.05, 6.65, 7.49, 8.18, 10.12, 12.22, 13.51, 13.43, 12.79, 12.98, 12.8, 13.01, 12.41, 12.96, 13.86, 11.18, 4.6, 6.95, 9.83, 8.94, 8.49, 7.63, 6.44, 6.28, 6.01, 5.21, 4.48, 3.29, 4.43, 5.36, 6.67, 7.18, 7.72, 7.59, 1.96, 1.96, 1.83, 2.72, 2.81, 2.81, 2.64, 2.64, 3.38, 4.16, 4.46, 5.28, 5.86, 6.31, 6.16, 5.0, 2.71, 2.52, 3.53, 3.25, 3.82, 3.53, 4.72, 5.4, 5.14, 5.0, 5.0, 5.0, 4.01, 3.91, 4.06, 3.19, 3.32, 3.51, 2.69, -0.0, -0.0, -0.0, 4.71, 1.94, 2.71, 2.54, 4.1, 4.21, 6.93, 8.2, 10.31, 9.61, 9.41, 7.89, 8.66, 9.8, 10.58, 10.18, 10.52, 10.58, 10.22, 10.65, 10.65, 10.65, 10.65, 10.73, 9.59, 7.78, 6.43, 7.25, 8.18, 9.06, 10.51, 12.22, 14.49, 14.79, 14.05, 13.23, 13.01, 13.18, 12.04, 12.96, 13.86, 11.18, 4.6, 6.95, 9.83, 8.94, 8.49, 7.63, 6.44, 6.28, 6.01, 5.21, 4.48, 3.29, 4.43, 5.36, 6.67, 7.18, 7.72, 7.59, 1.96, 1.96, 1.83, 2.72, 2.81, 2.89, 2.72, 1.83, 2.64, 3.95, 3.96, 3.89, 5.72, 6.24, 5.14, 3.67, 1.7, 1.77, 2.71, 3.47, 3.16, 3.53, 4.54, 5.27, 6.0, 4.13, 4.13, 3.25, 2.6, 3.19, 3.44, 3.23, 2.45, 2.42, 1.67, 1.4, 2.33, 4.0, 3.11, 1.63, 2.45, 3.81, 5.78, 6.42, 8.24, 9.33, 10.31, 9.41, 8.14, 8.3, 9.06, 10.58, 10.58, 10.24, 9.53, 9.89, 9.89, 10.22, 10.65, 10.65, 10.3, 9.92, 8.21, 6.79, 6.31, 7.49, 8.95, 9.8, 10.58, 12.26, 14.85, 15.35, 14.17, 12.8, 12.8, 12.41, 11.62, 13.86, 13.86, -0.0, -0.0, 2.39, 4.2, 4.0, 4.37, 4.46, 4.87, 4.68, 4.56, 4.48, 3.98, 3.98, 3.85, 6.0, 7.19, 7.65, 8.07, 7.4, 1.96, 1.96, 2.02, 1.96, 1.89, 1.95, 2.01, 1.89, 1.78, 3.1, 3.35, 3.89, 5.4, 5.0, 3.53, 1.84, 1.77, 1.98, 1.77, 2.61, 3.39, 2.6, 4.08, 4.47, 5.06, 5.08, 3.25, 2.59, 1.69, 2.51, 2.53, 2.45, 1.65, 1.25, 1.33, 1.39, 2.82, 4.4, 3.68, 3.02, 4.73, 5.52, 7.39, 8.2, 7.8, 8.33, 7.19, 7.51, 7.51, 8.76, 9.53, 10.24, 9.89, 9.89, 9.89, 9.56, 9.89, 9.48, 10.25, 10.25, 9.92, 8.72, 5.93, 5.67, 7.36, 8.31, 9.7, 9.48, 10.52, 11.79, 14.46, 15.03, 14.16, 11.99, 11.72, 11.44, 5.2, -7.44, -9.39, -4.81, -1.62, -0.0, 1.54, 2.46, 3.35, 3.6, 3.8, 3.45, 4.15, 4.11, 3.3, 3.01, 4.1, 6.4, 6.98, 6.95, 7.59, 6.77, 2.11, 1.96, 2.02, 2.02, 2.02, 2.09, 1.01, 1.01, 0.95, 1.67, 2.72, 3.39, 4.47, 2.94, 1.76, 0.97, 0.89, 1.0, 0.93, 1.84, 2.72, 2.42, 2.6, 4.24, 3.53, 3.82, 2.62, 2.52, 1.28, 1.69, 1.63, 0.86, 0.89, 0.89, 1.39, 2.71, 4.58, 6.43, 7.0, 6.26, 7.39, 7.21, 7.28, 6.64, 6.21, 6.48, 7.24, 7.51, 8.3, 9.17, 9.56, 9.96, 9.17, 9.17, 8.76, 9.06, 9.48, 9.48, 9.8, 9.92, 9.17, 7.19, 5.11, 5.86, 7.36, 8.72, 9.7, 10.51, 10.92, 11.34, 12.26, 14.13, 13.98, 12.51, 10.23, 9.55, -6.44, -5.77, -4.66, -3.36, -1.22, -0.0, -0.0, 1.47, 2.54, 2.21, 2.98, 3.39, 4.24, 4.66, 3.01, 2.72, 4.24, 5.1, 6.64, 7.47, 7.27, 6.16, 2.11, 1.96, 2.02, 2.02, 2.02, 2.09, 1.08, -0.0, -0.0, 0.89, 1.98, 2.33, 2.71, 1.92, 1.01, -0.0, -0.0, -0.0, 1.0, 1.9, 2.06, 1.84, 1.29, 2.54, 1.25, 1.25, 2.45, 2.54, 2.45, 2.37, 1.76, 0.89, -0.0, -0.0, 2.63, 3.73, 6.87, 9.8, 11.35, 7.44, 5.5, 6.4, 5.6, 6.31, 6.72, 7.1, 7.78, 8.37, 8.85, 9.26, 8.93, 9.26, 8.42, 8.72, 8.59, 9.06, 9.17, 9.48, 9.02, 9.48, 8.37, 5.06, 5.15, 5.73, 7.23, 9.77, 10.75, 10.18, 10.22, 11.34, 12.05, 12.89, 14.51, 13.89, 13.58, 11.2, -5.21, -6.64, -3.49, -1.13, -0.0, -0.0, -0.0, -0.0, -0.0, 1.47, 2.95, 3.47, 3.69, 3.1, 1.38, 3.04, 4.4, 5.72, 6.64, 5.72, 5.4, 5.08, 2.11, 1.96, 1.96, 2.02, 2.09, 1.08, 1.08, -0.0, -0.0, -0.0, 0.7, 1.2, 0.85, 0.85, -0.0, -0.0, -0.0, -0.0, -0.0, 1.04, 1.08, 1.19, -0.0, 1.17, 1.47, 1.58, 1.68, 2.81, 3.85, 3.82, 2.6, 0.85, -0.0, -0.0, 1.28, 4.38, 7.58, 9.8, 8.38, 4.71, 3.93, 4.55, 5.45, 7.11, 8.31, 7.82, 8.37, 9.64, 9.3, 9.42, 9.42, 8.53, 8.72, 8.72, 8.72, 8.72, 8.72, 8.85, 9.17, 8.37, 6.48, 4.36, 4.13, 5.73, 7.23, 9.77, 11.38, 10.43, 10.18, 10.92, 11.76, 12.62, 13.59, 16.34, 15.29, 15.25, 12.3, -5.86, -4.25, -2.51, -0.0, 0.82, -0.0, -1.45, -0.0, -0.0, -0.0, 2.21, 2.09, -0.0, 1.5, 3.19, 4.46, 5.44, 5.2, 4.6, 3.96, 4.1, 2.04, 2.11, 2.02, 2.24, 2.31, 1.17, 1.17, -0.0, -0.0, -0.0, -0.0, -0.0, -0.0, -0.0, -0.0, -0.0, -0.0, -0.0, -0.0, -0.0, 1.33, -0.0, -0.0, -0.0, 1.42, 2.09, -0.0, 3.79, 5.18, 4.71, 1.5, -0.0, -0.0, -0.0, 2.71, 6.21, 8.3, 7.59, 6.7, 5.2, 5.8, 5.46, 7.98, 10.13, 10.47, 9.48, 8.85, 9.64, 9.64, 9.48, 8.22, 8.07, 7.93, 7.93, 7.93, 8.85, 8.53, 8.07, 8.22, 7.72, 5.35, 3.34, 4.13, 5.55, 7.36, 9.49, 11.38, 11.47, 11.2, 11.64, 12.23, 12.98, 13.92, 16.31, 15.43, 15.18, 13.86, 4.48, -2.82, -1.71, -0.0, 2.19, 2.31, -0.0, -4.48, -2.54, -0.0, -0.0, -0.0, -0.0, -0.0, 2.66, 3.4, 2.83, 2.69, 2.33, 1.43, 2.81, 2.28, 2.18, 2.18, 2.24, 2.31, 1.17, 1.17, -0.0, -0.0, -1.04, -0.82, -1.56, -0.0, -0.0, -0.0, -0.0, -1.29, -1.17, -0.0, -0.0, -0.0, -0.0, -0.0, -0.0, -0.0, -0.0, -0.0, 2.2, 4.3, 3.81, 1.96, -0.0, -0.0, 2.72, 6.7, 8.22, 7.59, 6.44, 6.42, 6.7, 6.94, 8.31, 9.16, 9.17, 7.85, 8.22, 9.48, 9.13, 8.59, 8.49, 9.13, 7.54, 7.54, 7.1, 7.1, 7.78, 7.26, 6.98, 7.42, 7.14, 3.82, 3.46, 4.1, 5.67, 7.49, 8.84, 11.06, 12.16, 11.87, 12.51, 13.64, 12.92, 14.65, 15.2, 14.3, 13.41, 12.04, 10.09, 0.92, -0.0, 2.07, 2.19, 3.76, 2.1, -2.28, -5.4, -5.6, -5.8, -6.45, -0.0, -0.0, 1.63, 1.01, 0.84, 0.85, -0.0, 1.48, 2.72, 2.35, 2.18, 2.24, 2.24, 2.31, 1.26, 1.26, -0.0, -0.0, -0.0, -1.05, -2.16, -1.2, -0.0, -0.0, -0.0, -1.77, -3.58, -2.35, -2.13, -0.0, -0.0, -0.0, -0.0, -0.0, -0.0, -0.0, -0.0, -0.0, 2.35, -0.0, -0.0, -0.0, 6.0, 7.24, 6.44, 7.27, 5.86, 7.26, 9.17, 9.17, 9.69, 8.69, 8.02, 7.59, 8.22, 8.53, 8.72, 8.59, 8.59, 8.21, 7.62, 6.92, 6.67, 6.41, 6.86, 5.98, 6.41, 7.14, 5.0, 2.92, 3.57, 5.67, 6.31, 8.45, 9.36, 10.84, 11.45, 12.76, 13.19, 13.49, 12.92, 14.11, 14.75, 14.3, 13.29, 11.71, 8.85, 2.13, 2.3, 3.78, 5.65, 5.0, 4.4, -0.0, -6.95, -9.6, -8.55, -8.4, 8.05, -0.0, -0.0, -0.0, -0.0, -0.0, -0.0, 1.38, 2.42, 2.35, 2.35, 2.24, 2.24, 2.43, 1.26, 1.26, -0.0, -0.0, -0.0, -1.13, -1.29, -1.33, -0.0, -0.0, -0.0, -2.65, -5.99, -7.54, -6.34, -5.51, -2.87, -0.0, -0.0, -0.0, -0.0, -0.0, -0.0, -0.0, 3.47, 3.25, 2.13, 2.28, 5.2, 7.26, 8.22, 7.9, 6.98, 8.22, 10.94, 11.72, 10.59, 9.53, 8.22, 8.24, 7.59, 7.42, 6.98, 7.26, 6.84, 6.79, 6.79, 6.15, 5.93, 5.2, 5.98, 5.2, 5.64, 5.64, 3.97, 2.9, 3.69, 5.86, 7.74, 8.72, 10.12, 10.99, 10.98, 11.28, 11.64, 11.2, 12.45, 13.65, 14.27, 14.26, 13.7, 12.96, 4.98, 3.2, 4.07, 4.95, 7.4, 6.65, 5.95, 3.91, -2.4, -8.49, -8.94, -8.4, -7.15, -0.0, -0.0, -0.0, -0.0, -0.0, -0.0, 1.25, 1.93, 2.35, 2.35, 2.35, 2.43, 2.43, 2.43, 1.26, 1.34, -0.0, -0.0, -0.0, -0.0, -0.0, -0.0, -0.0, 1.55, -0.0, -2.81, -5.81, -10.61, -11.38, -9.77, -4.95, -3.16, -2.63, -5.8, -5.6, -2.82, -0.0, -0.0, 3.11, 5.52, 5.52, 5.63, 7.27, 7.27, 7.81, 9.3, 10.04, 11.5, 11.88, 11.53, 10.01, 8.22, 7.27, 5.63, 5.77, 5.2, 5.4, 5.08, 5.11, 5.73, 5.06, 4.95, 4.27, 4.24, 5.99, 6.73, 3.77, 2.93, 3.69, 4.38, 6.4, 8.14, 8.72, 9.82, 10.92, 11.38, 10.12, 9.06, 9.23, 10.66, 12.18, 13.34, 13.23, 13.01, 6.0, 3.8, 5.02, 5.72, 6.4, 6.65, 7.38, 6.84, 6.51, 5.59, -8.94, -8.18, -6.64, -5.69, -0.0, 2.17, 2.82, 2.04, 1.16, -0.0, 1.16, 1.75, 2.56, 2.35, 2.35, 2.43, 2.43, 2.64, 1.34, 1.3, 1.42, -0.0, -0.0, -0.0, -0.0, -0.0, -0.0, 1.89, 1.96, 2.13, -0.0, -4.81, -9.48, -10.79, -10.79, -11.26, -11.26, -10.87, -10.41, -7.82, -5.75, -0.0, 1.93, 5.75, 6.98, 6.7, 6.42, 6.95, 7.47, 8.94, 9.77, 10.4, 11.2, 10.79, 9.16, 7.59, 6.14, 2.95, 4.08, 4.24, 4.9, 5.08, 3.91, 3.96, 3.07, 3.1, 3.62, 4.67, 8.05, 8.51, 4.9, 1.91, 3.46, 4.98, 7.03, 7.44, 7.49, 7.93, 8.26, 8.11, 7.2, 8.39, 9.37, 9.92, 10.09, 10.4, 8.22, 2.2, 4.3, 5.99, 6.42, 7.38, 7.25, 8.05, 8.44, 9.89, 8.53, 7.76, 9.96, 10.28, 8.4, 7.15, 6.01, 5.24, 5.49, 5.46, 4.32, 2.32, 0.97, 1.68, 2.56, 2.56, 2.56, 2.56, 2.64, 2.64, 2.64, 1.42, 1.42, -0.0, -0.0, -0.0, -0.0, 1.68, 1.94, 2.0, 1.94, 4.18, 2.89, -0.0, -7.36, -11.17, -13.99, -14.18, -15.05, -13.32, -12.39, -10.82, -6.67, -4.48, -0.0, 3.98, 6.97, 6.42, 7.27, 6.01, 6.64, 7.81, 8.99, 9.8, 10.21, 9.09, 7.9, 5.75, 2.7, 2.49, 2.7, 3.77, 3.92, 5.2, 4.08, 2.71, 2.71, 2.82, 4.08, 5.3, 8.2, 10.47, 8.16, 3.29, 3.23, 5.92, 5.92, 6.85, 6.31, 6.73, 6.69, 5.18, 5.85, 7.82, 10.43, 11.38, 9.8, 5.75, 1.28, 3.0, 5.8, 7.6, 8.16, 8.86, 8.72, 9.4, 10.18, 11.28, 9.57, 9.67, 8.82, 7.59, 6.24, 7.27, 7.27, 7.22, 6.79, 6.7, 5.76, 3.97, 2.49, 2.59, 2.56, 2.56, 2.56, 2.56, 2.56, 2.64, 2.89, 2.89, 1.42, -0.0, -0.0, -0.0, -0.0, 1.51, 1.78, 2.05, 3.9, 5.65, 5.81, -0.0, -2.98, -7.82, -13.59, -15.2, -15.65, -15.65, -15.04, -12.27, -8.94, -4.98, -2.54, 2.19, 5.0, 6.17, 6.17, 5.06, 7.27, 7.13, 10.27, 8.8, 8.73, 7.26, 5.75, 4.8, 2.58, 2.58, 2.7, 3.87, 3.87, 5.1, 5.32, 4.05, 4.6, 4.37, 5.31, 5.21, 6.58, 8.16, 9.66, 7.36, 4.06, 5.8, 6.9, 7.13, 7.36, 6.85, 7.06, 7.36, 7.51, 8.85, 9.8, 10.51, 10.47, 7.59, 5.99, 7.4, 7.99, 8.93, 10.18, 10.34, 10.84, 10.58, 10.79, 10.73, 10.0, 10.43, 7.59, 6.0, 6.62, 7.24, 7.36, 6.79, 6.79, 6.79, 6.15, 4.01, 4.3, 4.3, 2.81, 2.56, 2.56, 3.76, 2.56, 2.81, 2.81, 2.89, 1.47, -0.0, -0.0, -0.0, -0.0, 1.51, 3.49, 4.01, 3.9, 5.81, 8.51, 7.2, -3.07, -1.94, -3.07, -15.65, -16.09, -15.87, -14.38, -13.58, -10.43, -6.4, -2.28, -0.0, 6.21, 7.27, 5.06, 4.5, 6.11, 8.0, 9.58, 7.59, 5.7, 4.8, 4.8, 4.4, 2.97, 2.83, 2.83, 4.0, 4.96, 5.21, 5.46, 5.21, 5.46, 5.21, 5.59, 5.59, 6.64, 7.9, 8.85, 7.96, 6.0, 6.97, 8.22, 8.53, 7.56, 7.85, 7.48, 8.85, 9.5, 9.5, 8.64, 10.9, 11.9, 10.66, 11.38, 10.59, 10.57, 10.43, 11.26, 11.64, 12.03, 12.03, 10.66, 10.04, 9.03, 6.95, 6.98, 6.45, 7.24, 8.12, 8.22, 6.88, 7.22, 6.71, 5.0, 5.2, 5.77, 5.77, 4.11, 2.81, 2.81, 3.98, 4.11, 2.81, 2.81, 3.2, 1.63, -0.0, -0.0, -0.0, -0.0, -0.0, 1.73, 3.9, 3.39, 6.72, 10.33, 11.7, -5.98, -3.16, -0.0, 15.65, -10.75, -12.65, -8.68, -8.68, -10.02, -7.2, -2.57, -0.0, 2.43, 3.04, 3.17, 4.21, 3.52, 3.82, 4.6, 3.82, 3.39, 3.3, 4.4, 2.83, 4.0, 2.83, 4.0, 5.59, 6.32, 6.98, 6.98, 6.32, 6.64, 6.3, 6.3, 6.3, 7.56, 7.56, 8.73, 8.22, 8.22, 8.15, 8.73, 9.32, 9.6, 7.81, 7.56, 7.56, 8.82, 8.44, 9.8, 12.13, 15.35, 14.46, 12.98, 11.88, 12.3, 13.76, 15.38, 14.99, 13.99, 13.8, 12.79, 11.58, 10.25, 7.13, 6.31, 8.01, 8.42, 8.53, 7.9, 7.59, 6.71, 6.53, 5.93, 5.99, 6.53, 6.53, 4.11, 2.81, 4.11, 3.98, 3.98, 4.11, 4.52, 3.1, 1.63, 1.63, -0.0, -0.0, -0.0, -0.0, 1.68, 1.63, 3.3, 5.98, 10.59, 11.38, -5.81, -4.12, -0.0, 5.48, 6.6, -3.69, -1.94, -2.21, -2.28, -2.34, -0.0, -0.0, -0.0, -0.0, 1.45, 1.18, 1.4, 2.39, 4.6, 4.6, 3.49, 3.15, 3.6, 3.15, 4.6, 4.6, 5.59, 6.98, 6.98, 7.44, 7.44, 6.98, 6.32, 6.32, 6.64, 6.64, 7.56, 7.56, 7.27, 8.15, 9.09, 9.48, 9.6, 9.63, 9.63, 8.3, 7.35, 7.28, 7.68, 8.82, 13.42, 14.71, 17.26, 16.85, 14.46, 14.0, 14.26, 14.62, 15.56, 15.36, 14.31, 13.2, 13.02, 10.12, 7.9, 8.22, 8.53, 8.12, 8.12, 8.85, 8.53, 7.48, 6.71, 6.53, 6.56, 6.56, 6.87, 6.87, 4.52, 4.11, 3.98, 3.98, 3.98, 4.38, 4.52, 3.1, 1.63, 1.63, -0.0, -0.0, -0.0, -0.0, -0.0, -0.0, 1.58, 5.81, 8.29, 2.98, -4.18, -4.12, -0.0, -0.0, -0.0, -0.0, -0.0, -0.0, -0.0, -0.0, 2.21, 2.28, -0.0, -0.0, -0.0, -0.0, 1.75, 4.0, 7.27, 6.2, 5.06, 5.63, 6.64, 5.36, 6.64, 7.33, 7.33, 7.44, 8.0, 8.0, 7.81, 6.32, 5.86, 5.59, 6.01, 6.64, 7.56, 7.27, 8.15, 8.73, 9.6, 9.6, 10.6, 9.49, 9.49, 8.56, 7.63, 7.95, 8.91, 11.71, 13.37, 15.52, 18.73, 18.73, 17.43, 15.83, 14.84, 14.84, 14.33, 14.84, 13.44, 12.79, 12.27, 10.03, 9.0, 9.0, 9.0, 8.65, 8.22, 8.22, 8.12, 7.64, 6.45, 6.53, 7.38, 7.38, 8.01, 8.01, 4.52, 4.52, 4.38, 4.38, 4.38, 4.38, 4.52, 4.52, 3.2, 1.83, -0.0, -0.0, -0.0, -0.0, 2.09, 1.77, 1.83, 1.58, 1.94, -0.0, -0.0, -1.56, -0.0, -0.0, -0.0, -0.0, -0.0, -0.0, -0.0, 2.21, 2.28, 4.42, 4.42, 2.72, -0.0, 2.72, 6.45, 8.93, 8.4, 6.44, 7.28, 7.67, 8.0, 7.76, 7.76, 8.82, 8.05, 8.4, 8.4, 8.0, 6.98, 5.59, 4.96, 4.96, 5.53, 6.32, 7.27, 7.02, 8.42, 10.0, 10.05, 9.63, 10.41, 9.97, 8.56, 8.06, 7.76, 8.17, 9.55, 11.28, 12.96, 15.77, 18.82, 19.52, 18.47, 17.34, 16.09, 15.65, 14.47, 14.53, 14.03, 13.74, 13.34, 10.94, 9.67, 9.3, 8.32, 8.32, 8.65, 7.59, 8.12, 7.51, 7.12, 7.38, 8.01, 8.66, 8.76, 8.76, 5.63, 4.52, 4.38, 4.38, 4.38, 4.38, 4.52, 4.52, 3.58, 1.83, 1.83, 1.83, 1.83, 2.09, 2.15, -0.0, -0.0, -0.0, -0.0, -0.0, -0.0, -0.0, -0.0, -0.0, -0.0, -0.0, -0.0, -0.0, -0.0, -0.0, 2.34, 4.54, 4.54, 4.54, 2.72, 5.64, 6.0, 8.22, 9.6, 8.0, 8.0, 8.72, 9.13, 8.8, 8.63, 9.96, 8.72, 8.91, 8.91, 7.67, 5.59, 4.0, 4.0, 4.96, 6.01, 6.32, 6.64, 7.68, 9.1, 9.63, 9.63, 9.63, 9.97, 9.63, 7.82, 7.82, 7.15, 8.18, 9.43, 10.04, 11.6, 14.33, 18.05, 19.5, 17.88, 17.31, 16.37, 16.54, 14.84, 13.38, 13.33, 13.71, 13.51, 11.8, 11.2, 8.42, 7.76, 7.68, 7.18, 6.88, 6.84, 7.38, 8.18, 8.01, 8.44, 9.17, 9.2, 9.2, 6.2, 5.63, 4.38, 5.63, 5.63, 5.63, 5.63, 5.02, 5.18, 3.58, 1.83, 1.83, 2.09, 2.09, 2.09, -0.0, -0.0, -0.0, -0.0, 2.43, 2.65, -0.0, -0.0, -0.0, -0.0, -0.0, -0.0, -0.0, -0.0, -0.0, 2.34, 4.54, 4.54, 4.54, 4.54, 5.09, 7.59, 7.78, 8.94, 8.23, 7.15, 7.51, 8.05, 8.05, 8.06, 7.4, 9.33, 9.33, 8.05, 6.32, 4.37, 3.8, 5.59, 5.59, 6.64, 6.64, 6.64, 7.68, 8.37, 8.54, 8.4, 9.13, 8.72, 7.81, 7.41, 6.95, 6.53, 6.7, 7.36, 8.83, 9.8, 13.38, 16.39, 17.98, 12.07, 13.28, 15.91, 15.99, 14.51, 13.54, 13.16, 13.03, 13.2, 12.18, 10.82, 8.53, 6.53, 7.13, 7.08, 7.93, 7.24, 7.28, 8.73, 8.79, 8.79, 9.53, 9.96, 9.96, 6.2, 6.2, 6.2, 6.2, 6.2, 6.2, 6.2, 6.4, 5.18, 3.58, 3.69, 2.15, 4.05, 4.66, 2.09, -0.0, -0.0, -0.0, 2.35, 2.43, 2.65, -0.0, -0.0, -0.0, -0.0, 2.11, -0.0, -0.0, -0.0, -0.0, -0.0, 2.28, 4.42, 4.42, 4.42, 7.2, 8.05, 8.38, 8.22, 7.59, 6.95, 7.51, 8.05, 7.67, 7.2, 6.57, 9.13, 8.72, 6.01, 4.14, 4.37, 5.31, 5.31, 5.59, 5.59, 6.64, 6.18, 7.35, 8.73, 7.2, 7.58, 7.51, 6.73, 7.06, 6.95, 6.83, 5.9, 5.9, 6.57, 7.36, 8.54, 11.03, 18.2, 15.96, 9.2, 7.15, 10.25, 12.65, 14.96, 15.39, 14.33, 13.77, 12.79, 11.16, 8.97, 7.82, 6.98, 7.36, 7.24, 8.01, 7.51, 8.09, 8.79, 9.53, 9.53, 9.56, 9.56, 9.56, 6.2, 6.2, 6.2, 6.2, 6.2, 6.2, 6.2, 6.4, 5.18, 5.18, 4.18, 4.18, 4.18, 4.05, 2.15, -0.0, -0.0, -0.0, -0.0, 2.43, 4.95, 2.65, -0.0, -0.0, -0.0, 2.0, 2.11, -0.0, -0.0, -0.0, -0.0, -0.0, 2.21, 4.3, 6.16, 7.0, 7.0, 8.66, 7.54, 6.7, 6.42, 7.27, 7.68, 7.67, 7.63, 6.79, 9.13, 8.05, 6.01, 5.03, 5.31, 5.31, 6.01, 6.01, 5.31, 5.59, 5.53, 7.06, 8.24, 6.95, 5.69, 6.01, 6.18, 6.95, 6.95, 6.83, 5.9, 5.92, 5.9, 6.83, 8.03, 17.19, 20.61, 18.73, 16.69, 13.28, 11.03, 11.13, 14.03, 14.86, 15.97, 14.5, 13.47, 10.43, 8.41, 7.62, 7.64, 8.01, 8.3, 9.06, 8.12, 8.53, 9.53, 9.56, 9.56, 10.19, 9.56, 9.56, 8.05, 8.05, 6.2, 6.2, 6.0, 6.0, 6.2, 7.1, 7.1, 5.81, 5.99, 5.99, 6.8, 4.18, 2.15, 2.15, 2.43, -0.0, -0.0, 2.5, 4.95, 4.54, 2.34, -0.0, -0.0, 1.89, 2.34, 2.4, -0.0, -0.0, -0.0, -0.0, 2.21, 4.18, 6.8, 6.8, 8.43, 8.18, 6.94, 5.95, 6.42, 6.14, 7.33, 8.4, 8.06, 7.52, 7.54, 7.21, 7.03, 6.44, 6.11, 7.68, 6.44, 5.69, 6.01, 6.01, 6.98, 5.69, 6.95, 6.3, 6.95, 6.01, 6.32, 7.4, 6.64, 6.04, 5.9, 5.9, 6.83, 8.82, 10.6, 14.36, 19.81, 19.51, 18.38, 19.52, 19.03, 16.05, 13.86, 11.62, 14.75, 15.16, 13.34, 9.77, 7.92, 7.93, 8.12, 8.3, 9.06, 9.8, 10.92, 9.56, 9.92, 10.01, 9.57, 9.57, 9.57, 9.57, 8.05, 8.05, 7.79, 6.65, 6.65, 6.65, 6.88, 7.1, 7.32, 5.81, 5.81, 6.8, 6.8, 4.3, 4.3, 2.15, 2.43, 2.43, 2.43, 2.5, 2.57, 2.34, 2.4, 2.34, -0.0, -0.0, 2.21, 2.34, -0.0, -0.0, -0.0, -0.0, 2.34, 4.3, 6.8, 6.8, 6.8, 6.8, 6.2, 6.2, 5.7, 6.42, 6.95, 7.81, 8.6, 7.98, 8.05, 7.54, 7.53, 7.37, 7.37, 6.32, 7.15, 5.37, 6.01, 6.01, 6.63, 6.01, 5.59, 6.95, 7.56, 7.9, 6.79, 7.15, 6.32, 5.06, 5.29, 6.15, 7.68, 8.82, 10.08, 13.8, 16.2, 19.81, 19.19, 18.54, 19.01, 19.22, 16.09, 11.62, 13.34, 14.28, 11.69, 8.94, 8.05, 8.3, 9.06, 9.06, 9.89, 10.18, 11.25, 10.19, 9.57, 9.57, 9.57, 10.01, 9.57, 9.57, 7.79, 7.79, 7.79, 7.79, 7.79, 6.88, 6.88, 7.1, 7.32, 8.18, 6.6, 6.8, 6.8, 4.3, 4.3, 4.18, 4.66, 2.43, 2.43, 2.5, 2.57, 2.28, 2.34, 2.4, -0.0, -0.0, 2.21, 2.28, 2.72, -0.0, -0.0, -0.0, 2.28, 6.52, 7.4, 7.2, 7.0, 7.0, 6.8, 6.2, 6.45, 5.7, 6.95, 8.15, 8.37, 8.49, 8.49, 8.05, 7.47, 6.9, 6.28, 6.28, 5.95, 5.49, 5.59, 5.49, 7.28, 5.69, 5.15, 5.69, 8.18, 7.51, 8.55, 6.45, 6.58, 5.21, 5.9, 7.68, 8.79, 9.77, 10.6, 11.76, 14.36, 16.71, 18.63, 17.66, 19.43, 18.11, 15.9, 10.8, 10.41, 11.17, 9.62, 8.58, 8.37, 9.02, 10.01, 9.8, 9.89, 9.96, 10.55, 11.16, 10.37, 10.01, 9.57, 10.53, 10.15, 10.15, 8.59, 8.59, 7.79, 7.79, 7.79, 8.05, 8.05, 8.31, 8.57, 8.18, 8.18, 8.43, 5.99, 4.3, 6.16, 6.16, 4.05, 4.05, 2.15, 2.21, 2.21, 5.09, 5.23, 2.72, -0.0, -0.0, -0.0, 2.57, 2.57, -0.0, -0.0, -0.0, 2.65, 5.09, 7.2, 7.2, 7.2, 7.0, 7.0, 6.6, 5.8, 5.95, 6.01, 7.13, 7.64, 9.11, 0.0, 8.49, 7.2, 5.37, 5.69, 6.28, 5.93, 5.93, 6.13, 5.75, 6.08, 6.44, 4.87, 5.69, 6.55, 8.21, 8.6, 6.32, 5.21, 6.24, 7.27, 8.18, 9.36, 10.6, 11.33, 11.93, 12.94, 14.09, 16.27, 18.32, 16.71, 16.44, 12.5, 10.16, 9.2, 8.82, 8.07, 8.72, 8.29, 9.43, 10.15, 11.25, 10.63, 10.29, 10.66, 11.04, 11.03, 10.66, 10.9, 10.53, 10.87, 10.87, 8.59, 8.59, 8.59, 7.79, 7.79, 8.05, 8.05, 8.31, 9.44, 9.44, 8.18, 8.43, 5.99, 6.16, 6.16, 6.16, 5.99, 4.05, 4.18, 4.3, 4.3, 4.95, 5.09, 2.72, -0.0, -0.0, -0.0, -0.0, 2.57, -0.0, -0.0, -0.0, -0.0, 5.09, 7.2, 7.2, 7.2, 7.2, 4.95, 7.0, 6.2, 6.98, 5.21, 6.14, 5.46, 6.32, 0.0, -4.6, -0.0, 4.22, 4.56, 5.69, 5.93, 5.24, 6.13, 6.36, 6.4, 6.08, 5.06, 5.84, 6.99, 8.17, 7.96, 6.64, 6.04, 7.27, 8.47, 9.2, 8.99, 9.97, 11.49, 12.39, 12.48, 12.52, 14.3, 16.82, 16.76, 14.71, 12.39, 11.97, 9.66, 8.05, 7.48, 6.11, 8.73, 9.85, 10.55, 11.66, 11.64, 11.6, 11.2, 11.2, 11.34, 11.26, 11.26, 11.99, 11.6, 11.6, 9.48, 9.48, 8.59, 8.59, 7.79, 8.05, 8.87, 9.16, 9.44, 9.44, 9.44, 8.18, 5.99, 6.16, 6.16, 7.76, 6.16, 5.99, 4.18, 4.18, 4.3, 4.81, 4.95, 4.42, 2.28, -0.0, -0.0, -0.0, -0.0, -0.0, -0.0, -0.0, -0.0, 4.95, 7.0, 7.0, 7.2, 5.09, 4.95, 7.0, 7.59, 6.44, 6.42, 5.31, 4.58, 7.33, 11.62, 5.4, 3.53, 3.87, 4.22, 4.11, 5.06, 5.58, 5.6, 6.79, 6.79, 6.16, 6.4, 6.0, 6.57, 8.37, 7.2, 6.32, 7.06, 7.76, 8.12, 9.32, 8.91, 9.16, 10.56, 11.11, 12.96, 13.75, 15.2, 18.33, 18.52, 15.18, 13.11, 13.15, 13.43, 8.93, 5.98, 6.34, 7.25, 11.16, 11.6, 11.99, 12.22, 12.01, 11.52, 11.87, 11.95, 12.33, 11.99, 12.74, 12.74, 12.74, 9.48, 9.48, 8.59, 8.59, 8.59, 8.87, 8.87, 9.16, 9.44, 10.43, 10.43, 10.43, 5.99, 6.16, 6.16, 7.76, 7.76, 5.99, 4.18, 5.99, 6.8, 6.8, 4.81, 4.3, 2.28, 2.28, -0.0, 2.57, 2.5, -0.0, -0.0, -0.0, -0.0, 2.98, 4.81, 6.8, 7.0, 4.95, 4.95, 7.0, 7.82, 9.48, 7.9, 6.64, 6.44, 8.43, 11.16, 9.48, 7.51, 6.98, 4.87, 3.48, 3.16, 4.46, 4.09, 6.16, 6.88, 7.5, 7.5, 6.61, 7.52, 7.95, 7.58, 8.21, 8.21, 8.17, 8.21, 9.32, 8.93, 9.33, 8.91, 9.77, 12.39, 15.27, 17.22, 19.22, 19.18, 15.78, 12.87, 13.77, 14.59, 14.33, 10.73, 9.19, 9.2, 9.96, 9.97, 12.79, 12.88, 12.43, 11.98, 11.86, 12.74, 13.18, 13.15, 13.05, 12.63, 12.63, 10.3, 10.3, 8.59, 8.59, 8.59, 8.87, 8.87, 9.16, 9.44, 10.43, 10.43, 10.43, 9.44, 5.99, 6.16, 7.76, 7.76, 6.16, 6.16, 6.8, 6.8, 6.8, 4.95, 4.3, 4.3, 2.28, 2.28, 2.15, 3.24, -0.0, -0.0, -0.0, -0.0, 2.98, 4.66, 4.81, 6.8, 4.95, 7.0, 8.05, 8.05, 10.12, 8.22, 7.87, 8.8, 9.96, 11.09, 11.37, 9.5, 6.64, 5.15, 4.43, 4.54, 4.84, 4.93, 4.93, 6.45, 7.08, 7.6, 7.15, 7.15, 7.37, 8.17, 7.89, 8.56, 8.48, 8.29, 9.46, 9.86, 9.86, 8.58, 8.8, 12.25, 16.24, 20.49, 22.23, 17.39, 12.2, 12.63, 12.54, 14.22, 15.59, 15.56, 13.05, 12.53, 11.98, 11.6, 10.73, 12.96, 12.07, 12.07, 12.52, 12.94, 12.94, 13.15, 13.15, 13.11, 13.11, 10.3, 10.3, 9.48, 8.59, 8.59, 8.87, 8.87, 9.16, 9.44, 10.43, 12.0, 12.0, 10.43, 8.18, 6.16, 7.76, 7.76, 8.68, 8.68, 8.43, 7.0, 4.95, 4.95, 4.18, 4.3, 2.57, 2.57, -0.0, -0.0, -0.0, -0.0, -0.0, 2.57, 2.57, 2.5, 4.81, 4.81, 4.81, 7.0, 8.05, 9.77, 10.43, 8.85, 8.23, 9.2, 10.96, 11.03, 11.6, 9.67, 7.07, 7.07, 6.7, 6.32, 6.4, 6.16, 5.86, 5.64, 6.21, 6.71, 6.26, 5.36, 7.37, 8.48, 7.53, 8.06, 8.06, 8.29, 8.29, 9.89, 10.41, 9.24, 9.66, 10.84, 15.09, 21.14, 25.28, 14.75, 11.18, 11.95, 12.72, 13.57, 14.84, 16.1, 16.29, 14.27, 14.3, 12.94, 11.42, 12.86, 11.96, 12.48, 12.49, 12.49, 12.96, 12.96, 12.81, 12.24, 12.24, 9.96, 9.96, 10.3, 8.59, 8.59, 8.87, 8.87, 9.16, 10.12, 10.43, 12.0, 12.0, 10.43, 8.18, 6.8, 7.0, 8.68, 8.43, 9.49, 8.68, 7.0, 4.95, 4.95, 4.81, 4.81, 4.95, 2.57, 2.5, -0.0, -0.0, 2.43, 2.43, 2.43, 2.5, 2.5, 4.81, 4.81, 4.81, 4.95, 8.05, 9.77, 10.75, 9.48, 9.2, 9.55, 10.96, 10.79, 11.62, 10.35, 7.33, 6.98, 6.98, 7.6, 7.2, 7.31, 6.88, 6.51, 6.11, 5.77, 5.36, 7.6, 7.89, 7.89, 8.0, 7.53, 7.95, 8.06, 8.06, 9.46, 10.05, 9.36, 10.46, 11.55, 13.38, 19.01, 23.29, 18.76, 13.01, 12.62, 13.23, 14.55, 15.87, 16.43, 16.87, 17.4, 14.3, 13.38, 11.36, 12.71, 12.24, 11.95, 11.93, 12.04, 12.52, 12.48, 12.39, 12.24, 12.24, 9.96, 9.96, 10.3, 8.59, 8.59, 8.59, 8.87, 9.16, 10.12, 12.0, 12.0, 12.0, 11.33, 9.44, 6.8, 7.0, 8.43, 9.49, 9.49, 7.0, 7.0, 7.0, 4.95, 4.95, 4.81, 4.81, 2.57, 2.5, -0.0, -0.0, 2.43, 2.35, 2.35, 2.81, 2.89, 5.64, 4.81, 4.81, 4.81, 8.05, 8.05, 9.49, 9.8, 9.97, 10.08, 10.73, 11.03, 10.04, 9.66, 8.23, 8.43, 8.05, 7.28, 7.6, 7.74, 7.31, 7.37, 6.98, 6.66, 5.36, 4.92, 7.89, 7.47, 8.06, 8.48, 8.48, 7.95, 8.17, 8.99, 9.66, 9.83, 11.03, 12.45, 12.94, 15.87, 17.13, 18.56, 17.81, 15.41, 15.07, 15.17, 15.97, 15.95, 15.51, 15.51, 12.93, 12.96, 13.86, 12.52, 12.07, 11.62, 11.18, 11.58, 11.93, 11.8, 11.61, 11.61, 11.61, 9.96, 9.96, 10.3, 8.59, 8.59, 8.59, 8.87, 9.8, 10.12, 11.64, 12.0, 12.0, 11.33, 10.43, 8.18, 6.8, 9.49, 9.49, 9.49, 7.0, 7.0, 7.0, 6.16, 4.95, 4.95, 4.81, 2.5, 2.5, 2.43, 2.43, 2.43, 2.43, 2.81, 2.72, 2.81, 2.81, 2.43, 2.5, 4.81, 5.64, 7.82, 9.49, 10.12, 10.35, 10.28, 10.28, 10.73, 5.2, 6.7, 6.71, 7.87, 7.87, 8.05, 8.48, 7.63, 7.74, 7.81, 7.55, 7.11, 5.78, 5.36, 4.88, 7.89, 7.37, 8.29, 9.03, 8.06, 9.21, 9.24, 9.68, 10.91, 10.41, 13.19, 13.15, 14.06, 14.58, 15.94, 17.3, 19.81, 20.38, 18.36, 14.86, 13.11, 12.68, 13.11, 12.89, 12.63, 11.54, 11.11, 10.68, 10.68, 10.89, 10.84, 11.28, 11.8, 11.8, 11.61, 11.61, 9.96, 9.96, 10.3, 8.59, 8.59, 8.59, 9.8, 9.8, 10.99, 11.64, 11.64, 12.81, 12.27, 10.43, 8.18, 8.43, 8.43, 9.49, 6.8, 7.0, 7.0, 7.0, 6.16, 4.3, 4.81, 4.81, 4.81, 2.5, 2.43, 2.43, 2.89, 2.89, 2.81, 2.72, 2.72, 2.28, 2.35, 2.43, 2.89, 5.64, 7.82, 7.82, 9.8, 8.22, 8.94, -6.64, -10.28, -0.0, 2.82, 5.2, 6.44, 8.23, 8.43, 8.72, 8.06, 7.74, 7.98, 7.98, 7.11, 6.22, 5.36, 4.92, 8.05, 7.54, 8.29, 9.29, 8.29, 8.9, 9.34, 9.24, 9.68, 10.68, 12.94, 13.88, 14.9, 14.03, 13.92, 15.77, 20.46, 22.05, 19.08, 14.61, 11.61, 11.54, 11.79, 12.21, 12.3, 10.95, 10.95, 11.18, 10.93, 10.93, 11.06, 11.49, 12.03, 12.03, 12.03, 11.8, 9.96, 9.96, 9.96, 9.48, 8.59, 8.59, 9.8, 10.65, 10.99, 11.64, 12.13, 12.42, 11.9, 10.12, 8.18, 8.43, 8.43, 8.43, 6.8, 7.0, 7.0, 7.0, 7.0, 7.0, 4.95, 4.81, 4.81, 2.5, 2.43, 2.89, 2.81, 2.81, 2.81, 2.72, 2.72, 2.28, 2.28, 2.81, 2.89, 5.48, 5.48, 6.8, 6.9, 5.52, 6.01, 10.28, -7.9, -0.0, 2.37, 4.48, 6.97, 8.94, 9.6, 8.72, 8.06, 7.94, 8.41, 8.43, 7.55, 6.66, 5.36, 4.92, 8.05, 7.08, 8.0, 9.29, 8.85, 8.29, 8.77, 9.21, 8.99, 10.88, 12.42, 13.29, 17.41, 14.6, 14.27, 15.98, 19.68, 19.51, 16.74, 14.42, 12.63, 12.1, 11.92, 12.3, 12.37, 11.66, 11.84, 11.52, 11.59, 11.15, 11.18, 11.62, 12.07, 12.07, 12.07, 12.03, 10.79, 10.79, 9.96, 9.48, 9.48, 9.48, 10.3, 10.65, 11.64, 11.64, 12.79, 12.42, 11.9, 10.12, 9.44, 9.44, 9.73, 8.43, 6.8, 6.8, 7.0, 4.95, 7.0, 6.8, 6.8, 4.66, 4.66, 2.43, 2.43, 2.89, 2.81, 2.81, 2.81, 2.72, 2.28, 2.28, 2.28, 2.72, 2.81, 2.81, 6.6, 6.6, 6.0, 5.52, 7.87, 10.4, 6.0, 2.2, 4.1, 6.67, 8.85, 9.66, 8.94, 9.55, 8.33, 7.94, 8.41, 8.43, 7.55, 6.71, 5.81, 4.92, 5.36, 8.49, 8.38, 8.82, 8.0, 8.77, 8.56, 8.99, 9.13, 9.66, 11.99, 13.44, 14.86, 16.33, 15.6, 15.61, 16.66, 14.51, 12.87, 12.45, 12.87, 12.04, 12.3, 12.18, 12.33, 12.42, 12.05, 12.07, 11.62, 11.18, 11.18, 11.62, 12.07, 12.07, 11.62, 12.07, 10.79, 10.79, 9.96, 9.17, 9.48, 9.48, 10.3, 10.65, 11.28, 12.79, 12.42, 12.42, 10.99, 10.99, 9.44, 9.44, 9.73, 8.43, 6.8, 6.8, 6.8, 6.8, 7.0, 7.0, 6.8, 4.66, 4.66, 4.66, 2.89, 2.89, 2.81, 2.72, 2.72, 2.72, 2.72, 2.28, 2.28, 2.72, 2.72, 2.72, 6.4, 8.18, 7.69, 6.45, 7.59, 10.37, 9.16, 7.93, 8.66, 9.48, 9.48, 10.01, 9.3, 9.96, 8.77, 7.94, 8.38, 8.43, 7.98, 7.15, 6.26, 4.92, 7.6, 7.6, 7.94, 8.38, 8.29, 9.29, 8.06, 8.72, 9.13, 9.24, 11.35, 11.99, 13.02, 15.27, 18.52, 18.73, 14.53, 10.55, 11.47, 11.99, 12.14, 11.95, 12.14, 12.33, 12.87, 12.94, 12.52, 12.07, 11.6, 11.15, 11.15, 11.58, 11.62, 11.62, 11.53, 11.53, 10.79, 10.79, 9.96, 9.17, 9.17, 9.48, 10.3, 10.65, 12.03, 12.39, 12.03, 12.42, 10.99, 10.99, 10.12, 9.44, 9.44, 8.43, 8.18, 6.8, 6.8, 6.8, 6.8, 6.8, 6.8, 4.66, 4.66, 4.66, 5.48, 5.48, 2.81, 2.72, 2.72, 2.72, 2.63, 2.72, 2.28, 2.72, 2.72, 2.72, 6.4, 7.93, 7.69, 8.53, 9.67, 10.73, 11.9, 9.8, 10.12, 10.37, 10.37, 10.35, 10.38, 9.13, 7.89, 7.89, 8.41, 8.43, 7.98, 7.6, 6.71, 5.81, 4.92, 8.05, 7.89, 8.06, 8.48, 8.48, 7.6, 8.21, 9.13, 9.42, 10.84, 10.41, 12.85, 14.03, 16.99, 20.39, 16.79, 11.6, 12.4, 12.92, 12.72, 12.44, 12.77, 12.86, 12.94, 12.52, 12.52, 12.04, 11.6, 11.06, 11.49, 11.12, 11.51, 11.18, 11.18, 11.18, 10.79, 10.79, 9.96, 9.17, 9.17, 9.48, 10.3, 11.64, 12.03, 12.03, 12.03, 12.03, 11.9, 10.99, 10.12, 10.43, 10.43, 9.22, 9.22, 6.8, 6.8, 6.8, 6.8, 6.8, 6.6, 4.52, 4.66, 4.66, 5.48, 5.48, 5.31, 2.72, 2.72, 2.63, 2.63, 2.63, 2.28, 2.72, 2.72, 6.2, 6.4, 6.4, 7.69, 6.94, 10.04, 11.2, 10.73, 11.12, 9.66, 9.3, 10.0, 10.38, 9.55, 8.3, 7.89, 7.89, 7.97, 7.97, 7.98, 7.6, 7.15, 6.26, 5.32, 8.05, 7.89, 7.89, 8.0, 8.0, 7.2, 8.17, 8.99, 9.21, 9.68, 10.41, 11.36, 12.3, 14.3, 16.79, 18.31, 17.19, 15.15, 15.0, 14.84, 13.92, 13.65, 13.32, 12.94, 12.52, 12.52, 12.07, 12.04, 11.49, 11.84, 11.95, 11.61, 11.18, 11.18, 11.18, 10.41, 10.41, 10.79, 9.17, 9.17, 10.12, 11.16, 11.64, 12.33, 12.74, 12.03, 12.03, 11.9, 10.99, 10.12, 10.43, 10.43, 9.22, 6.6, 6.6, 6.8, 6.8, 6.8, 6.8, 6.8, 6.6, 4.66, 4.66, 4.66, 5.48, 5.31, 5.31, 5.15, 2.72, 2.63, 2.2, 2.2, 2.72, 2.72, 6.2, 6.4, 6.4, 7.69, 9.17, 10.04, 10.04, 11.2, 10.01, 9.3, 9.6, 8.8, 8.4, 7.89, 7.89, 7.89, 7.94, 7.5, 7.52, 7.6, 7.6, 7.15, 6.71, 5.77, 5.36, 8.38, 7.89, 8.48, 7.53, 8.17, 8.48, 9.74, 8.77, 9.24, 10.14, 10.89, 11.37, 12.98, 13.75, 15.41, 17.14, 19.41, 20.19, 19.51, 17.15, 13.65, 12.77, 12.87, 12.96, 12.96, 12.52, 13.31, 11.18, 12.07, 11.91, 11.51, 11.18, 11.18, 11.18, 10.41, 10.41, 10.41, 10.79, 10.12, 10.79, 11.16, 12.33, 12.33, 12.74, 12.74, 12.74, 11.9, 10.12, 10.12, 10.43, 10.43, 9.22, 6.6, 5.81, 5.81, 6.6, 6.8, 6.8, 6.6, 6.6, 6.6, 4.66, 4.66, 4.66, 5.31, 5.31, 5.15, 2.72, 2.2, 2.2, 2.2, 2.72, 2.72, 6.2, 6.2, 6.4, 7.69, 9.48, 8.85, 8.53, 10.01, 10.01, 9.66, 10.0, 9.2, 8.0, 7.47, 7.89, 7.89, 7.94, 7.94, 7.52, 7.15, 7.15, 6.71, 6.71, 5.81, 5.81, 5.81, 8.82, 8.38, 7.98, 8.44, 8.77, 8.9, 9.34, 9.68, 9.97, 10.68, 11.61, 12.3, 13.39, 13.11, 13.99, 15.8, 21.24, 22.73, 19.73, 16.48, 14.06, 12.87, 12.94, 12.96, 13.41, 12.07, 10.41, 11.46, 11.46, 11.03, 10.0, 10.0, 10.0, 10.41, 10.41, 10.41, 10.79, 10.79, 11.6, 11.6, 12.33, 12.33, 12.74, 13.32, 12.74, 11.53, 10.12, 9.16, 9.16, 10.12, 7.93, 5.63, 5.63, 5.81, 5.81, 6.6, 6.8, 6.8, 6.6, 6.4, 4.66, 4.66, 4.66, 5.48, 5.31, 5.31, 2.28, 2.2, 2.2, 2.2, 2.63, 2.72, 6.2, 6.2, 6.2, 6.2, 9.48, 9.17, 8.53, 8.85, 10.01, 10.01, 10.4, 9.6, 8.4, 8.67, 7.89, 7.89, 7.94, 7.5, 7.6, 7.15, 6.71, 6.26, 6.26, 5.81, 5.81, 5.36, 8.49, 8.49, 8.49, 8.94, 8.44, 8.9, 9.21, 9.68, 10.41, 10.89, 11.11, 12.04, 12.72, 12.45, 12.15, 13.19, 17.19, 22.06, 22.5, 19.52, 17.57, 15.17, 12.94, 12.96, 12.07, 11.28, 10.96, 11.02, 10.18, 9.6, 9.86, 9.86, 9.86, 11.2, 11.2, 10.41, 11.2, 11.6, 11.6, 11.6, 12.33, 12.89, 12.89, 13.32, 12.39, 9.8, 9.16, 9.16, 9.16, 9.16, 7.1, 5.63, 5.63, 5.81, 5.81, 6.8, 6.8, 6.8, 6.6, 6.4, 4.38, 4.52, 4.52, 5.48, 5.48, 4.52, 2.28, 2.2, 2.2, 2.2, 2.63, 4.98, 4.98, 6.0, 6.2, 6.2, 8.05, 9.17, 8.85, 9.17, 10.01, 10.01, 10.4, 9.6, 9.2, 9.11, 8.67, 7.89, 8.05, 7.6, 7.6, 7.15, 6.71, 6.26, 6.26, 6.26, 5.81, 5.36, 8.05, 7.94, 8.38, 8.82, 8.29, 9.21, 9.21, 10.12, 10.58, 10.45, 10.89, 11.18, 11.87, 12.04, 12.15, 12.56, 13.83, 17.58, 21.41, 23.02, 20.11, 17.23, 14.11, 12.07, 11.84, 11.28, 10.96, 9.96, 8.82, 9.6, 9.86, 9.86, 9.86, 11.2, 11.2, 11.2, 11.2, 11.2, 11.6, 12.3, 12.89, 12.89, 13.31, 13.32, 11.53, 9.8, 9.16, 9.16, 9.16, 7.1, 5.63, 5.02, 5.63, 5.63, 6.6, 6.6, 6.6, 6.6, 6.6, 6.4, 4.38, 4.38, 4.38, 4.38, 4.52, 4.52, 2.28, 2.2, 2.2, 2.63, 2.63, 4.98, 4.98, 6.0, 6.0, 6.2, 8.05, 7.78, 8.85, 9.17, 10.37, 9.66, 10.4, 9.6, 9.2, 8.8, 9.11, 7.89, 8.05, 8.05, 8.05, 7.6, 6.71, 6.71, 6.71, 6.26, 5.81, 5.36, 7.15, 7.52, 7.81, 8.29, 8.73, 9.34, 9.35, 9.68, 10.14, 10.58, 10.89, 11.11, 11.37, 11.5, 11.6, 12.15, 12.23, 13.49, 17.58, 20.63, 21.28, 13.7, 10.28, 10.91, 11.02, 10.84, 10.41, 9.55, 9.75, 9.89, 9.45, 9.45, 9.45, 11.2, 10.8, 11.2, 11.2, 11.87, 12.3, 12.3, 12.83, 13.31, 13.31, 12.74, 10.82, 10.12, 9.16, 8.87, 7.69, 6.88, 5.46, 5.46, 5.63, 5.63, 8.18, 8.18, 5.81, 5.81, 5.81, 6.4, 6.4, 6.2, 6.0, 4.24, 4.24, 4.38, 2.28, 2.2, 2.13, 2.54, 4.81, 4.81, 4.81, 4.98, 6.0, 6.0, 8.05, 7.78, 9.17, 9.17, 8.85, 9.66, 10.4, 9.6, 9.2, 8.8, 8.77, 8.49, 8.49, 8.05, 8.05, 7.6, 6.71, 6.71, 6.71, 6.26, 5.81, 5.29, 6.71, 7.06, 7.37, 7.81, 8.29, 8.73, 8.9, 9.34, 10.25, 10.58, 10.45, 10.68, 10.85, 10.96, 11.6, 11.6, 11.6, 12.23, 13.83, 19.43, 17.27, 14.13, 9.36, 9.24, 9.33, 10.58, 9.97, 9.96, 9.96, 9.75, 8.8, 8.8, 8.8, 10.8, 11.61, 11.61, 11.87, 11.87, 11.87, 12.83, 12.83, 13.31, 12.89, 12.39, 9.8, 8.94, 10.12, 7.69, 7.44, 5.28, 5.46, 5.63, 5.63, 7.93, 7.93, 7.32, 7.32, 5.81, 5.81, 6.4, 6.4, 6.2, 6.2, 6.0, 4.24, 4.24, 2.2, 2.13, 2.13, 2.54, 4.81, 4.81, 4.81, 4.81, 5.8, 6.0, 8.05, 7.78, 9.17, 8.85, 8.85, 9.66, 10.4, 9.6, 8.8, 9.54, 9.39, 8.94, 8.05, 8.05, 7.6, 7.6, 7.15, 6.71, 6.71, 6.71, 6.2, 5.73, 4.92, 6.71, 7.08, 7.37, 7.53, 7.76, 8.48, 8.91, 9.16, 10.12, 10.41, 9.9, 10.0, 10.55, 10.96, 11.5, 10.96, 11.5, 13.49, 21.17, 18.79, 15.68, 11.03, 9.11, 8.63, 8.79, 9.33, 9.13, 8.82, 7.68, 6.64, 6.64, 6.64, 11.61, 11.61, 11.61, 11.61, 12.04, 12.39, 12.39, 12.96, 12.86, 12.89, 12.39, 9.8, 8.94, 8.66, 7.44, 7.44, 5.46, 5.46, 5.63, 6.4, 7.93, 7.93, 7.32, 7.32, 7.32, 7.1, 7.93, 6.2, 6.2, 6.2, 6.0, 6.0, 4.24, 4.24, 2.13, 2.54, 2.54, 4.65, 4.65, 4.81, 4.81, 5.8, 7.78, 7.78, 7.78, 9.17, 8.85, 8.85, 9.66, 10.4, 9.6, 9.97, 10.08, 9.39, 8.94, 8.49, 8.05, 7.6, 7.15, 7.15, 6.71, 6.71, 6.71, 6.71, 5.73, 4.82, 7.15, 6.71, 7.31, 7.53, 7.95, 8.17, 8.17, 8.17, 9.42, 8.8, 9.42, 10.0, 10.0, 10.43, 10.55, 10.55, 11.37, 18.87, 22.05, 19.39, 16.66, 13.5, 11.28, 9.92, 8.63, 7.76, 7.76, 7.44, 6.87, 5.2, 5.2, 5.2, 11.61, 11.61, 11.61, 11.95, 12.39, 12.39, 12.52, 12.96, 12.86, 12.89, 11.88, 9.8, 9.8, 8.66, 8.38, 6.0, 6.2, 6.2, 6.2, 7.93, 7.93, 7.93, 7.32, 7.32, 7.32, 7.1, 7.93, 7.69, 7.69, 7.44, 7.44, 6.0, 6.9, 4.98, 4.81, 2.45, 2.45, 4.65, 4.65, 4.65, 5.8, 5.8, 7.78, 7.78, 9.17, 9.17, 8.85, 8.85, 10.8, 10.4, 10.41, 9.97, 9.83, 9.39, 8.94, 8.49, 8.49, 8.05, 7.6, 7.15, 6.71, 6.71, 6.71, 6.71, 6.17, 5.09, 4.82, 4.92, 7.52, 7.97, 8.24, 8.29, 8.48, 8.21, 8.21, 8.18, 8.82, 9.42, 9.6, 9.9, 10.32, 10.55, 13.23, 18.44, 22.05, 19.08, 16.48, 13.15, 11.76, 10.92, 10.18, 8.55, 8.17, 7.6, 6.18, 3.99, 3.99, 3.99, 11.95, 11.95, 11.95, 11.95, 11.95, 12.52, 12.52, 12.96, 12.83, 12.89, 11.5, 9.48, 9.48, 8.38, 6.67, 6.0, 6.2, 6.2, 7.69, 7.93, 7.93, 7.93, 7.1, 7.1, 7.1, 7.1, 7.69, 7.69, 7.69, 7.44, 7.19, 8.38, 6.9, 4.98, 4.81, 4.65, 4.65, 4.65, 4.48, 5.6, 5.6, 5.6, 7.78, 7.78, 9.17, 8.85, 8.85, 10.01, 11.2, 11.28, 10.41, 10.28, 9.83, 9.39, 8.94, 8.49, 8.49, 8.05, 7.6, 7.6, 7.15, 7.15, 6.71, 6.71, 6.64, 6.2, 5.73, 5.36, 7.15, 7.6, 8.05, 8.44, 8.73, 8.99, 8.72, 8.72, 8.8, 9.36, 9.9, 9.9, 10.32, 10.55, 13.11, 15.83, 19.92, 18.48, 14.71, 11.2, 9.81, 9.6, 10.0, 9.2, 8.72, 7.76, 6.91, 3.77, 3.77, 3.77, 11.51, 11.51, 11.95, 11.95, 12.07, 12.07, 12.52, 12.96, 12.39, 12.46, 11.6, 10.12, 9.17, 8.1, 6.67, 6.9, 7.13, 6.2, 7.69, 7.69, 7.93, 7.1, 7.1, 7.1, 7.1, 7.1, 8.05, 6.88, 7.44, 7.44, 7.19, 8.38, 8.38, 6.9, 4.81, 4.65, 4.65, 4.65, 5.4, 5.4, 5.6, 5.6, 7.51, 7.51, 8.85, 8.85, 8.85, 10.41, 11.2, 11.28, 10.41, 9.97, 9.83, 9.39, 8.94, 8.49, 8.49, 8.05, 7.6, 7.6, 7.6, 7.15, 6.71, 7.08, 7.08, 6.2, 5.73, 5.4, 5.73, 7.6, 8.05, 8.44, 8.89, 8.77, 8.99, 8.99, 8.99, 9.24, 9.75, 9.9, 9.9, 10.63, 12.15, 14.3, 17.2, 17.74, 14.18, 11.38, 8.8, 9.2, 9.34, 9.74, 9.08, 7.82, 6.32, 3.14, 3.14, 3.14, 11.51, 11.51, 11.51, 12.07, 11.62, 12.07, 12.07, 12.52, 12.39, 11.87, 11.6, 10.12, 9.17, 9.17, 8.1, 6.9, 7.13, 6.2, 7.69, 7.69, 6.88, 7.1, 7.1, 7.1, 8.31, 8.05, 8.05, 7.79, 7.79, 8.59, 7.19, 7.44, 8.38, 6.67, 6.67, 6.44, 4.65, 5.4, 5.4, 5.4, 5.6, 7.51, 7.51, 7.51, 8.85, 8.85, 8.85, 10.41, 11.2, 11.28, 10.41, 10.28, 9.83, 9.39, 9.39, 8.94, 8.49, 8.49, 8.05, 7.6, 7.6, 7.15, 7.08, 7.08, 7.08, 6.64, 5.94, 5.4, 4.98, 7.5, 8.05, 8.05, 8.44, 8.29, 8.48, 8.56, 8.56, 9.49, 9.24, 9.66, 10.0, 10.96, 12.04, 13.64, 14.88, 17.67, 15.19, 12.79, 8.8, 9.6, 9.34, 9.74, 9.34, 8.21, 5.72, 2.17, 2.17, 2.17, 11.53, 11.53, 11.62, 11.62, 11.62, 12.07, 12.07, 12.07, 11.95, 11.87, 11.2, 11.12, 10.12, 9.17, 8.1, 8.38, 7.44, 7.69, 6.88, 6.88, 6.88, 8.31, 7.58, 7.58, 8.05, 8.05, 8.05, 7.79, 7.79, 8.3, 8.3, 7.44, 8.38, 8.1, 6.44, 6.44, 6.21, 7.24, 7.24, 7.24, 7.51, 7.51, 8.85, 8.53, 8.53, 8.53, 8.85, 11.2, 11.2, 10.4, 10.41, 9.97, 9.83, 9.83, 9.39, 8.94, 8.49, 8.05, 8.05, 7.6, 7.15, 7.06, 7.08, 7.52, 7.52, 6.88, 5.94, 5.37, 4.89, 7.63, 7.97, 8.05, 7.98, 7.95, 8.06, 8.17, 8.17, 8.17, 8.72, 9.36, 10.32, 10.85, 11.87, 13.23, 13.91, 17.02, 15.99, 13.59, 11.2, 9.6, 9.6, 9.74, 9.74, 8.43, 6.32, 2.17, 2.17, 2.17, 11.18, 11.18, 11.18, 11.62, 11.62, 11.62, 11.62, 12.07, 11.95, 12.39, 11.87, 11.6, 10.12, 10.12, 9.17, 7.44, 8.87, 7.79, 8.05, 8.05, 7.34, 7.58, 7.58, 7.58, 8.31, 9.02, 8.73, 8.73, 7.79, 8.3, 8.3, 8.59, 8.38, 8.1, 7.82, 7.82, 6.21, 7.24, 7.24, 7.24, 7.24, 8.53, 8.53, 8.53, 8.53, 8.53, 9.66, 10.8, 10.8, 10.0, 10.41, 9.97, 10.28, 9.83, 9.39, 9.39, 8.94, 8.05, 8.05, 7.6, 7.6, 7.5, 7.52, 7.52, 7.52, 6.88, 6.45, 6.0, 5.59, 6.21, 6.98, 8.49, 7.98, 7.81, 8.06, 8.48, 8.3, 8.72, 9.13, 9.36, 9.9, 11.11, 12.09, 13.01, 13.72, 16.19, 15.99, 13.99, 12.99, 9.74, 9.34, 9.74, 9.45, 9.03, 6.79, 2.46, 2.46, 2.46, 11.18, 11.18, 11.18, 11.18, 11.18, 11.62, 11.62, 12.07, 12.07, 12.39, 12.04, 11.2, 10.79, 9.96, 9.17, 8.59, 7.79, 8.73, 8.05, 8.31, 8.31, 8.31, 8.58, 8.58, 8.31, 8.73, 8.73, 8.73, 8.44, 8.3, 8.3, 8.59, 9.48, 8.1, 7.82, 7.82, 8.53, 8.53, 8.53, 8.53, 7.24, 8.53, 9.66, 9.66, 9.3, 9.3, 9.3, 10.8, 10.4, 9.6, 10.41, 9.97, 9.97, 10.28, 9.83, 9.39, 8.94, 8.49, 8.49, 8.05, 7.6, 7.5, 7.52, 7.97, 7.97, 7.31, 6.88, 6.4, 5.95, 6.32, 6.8, 8.85, 7.98, 8.82, 7.81, 8.29, 8.56, 8.99, 8.99, 9.49, 10.18, 10.68, 11.61, 12.58, 13.23, 15.36, 15.42, 13.99, 12.99, 11.77, 9.34, 9.74, 9.84, 9.45, 7.44, 3.8, 3.8, 3.8, 11.18, 11.18, 11.18, 11.18, 11.18, 11.62, 11.62, 12.07, 12.07, 12.39, 12.04, 11.5, 11.26, 9.96, 9.17, 9.48, 8.73, 8.73, 8.05, 8.31, 8.31, 8.31, 8.31, 8.31, 9.02, 8.73, 8.73, 8.73, 9.17, 9.17, 8.3, 9.48, 9.17, 8.85, 8.85, 7.82, 8.53, 8.53, 8.22, 8.22, 8.53, 9.66, 9.3, 9.3, 8.94, 8.94, 10.0, 10.0, 10.38, 9.96, 10.08, 10.08, 10.08, 10.28, 9.83, 9.83, 9.39, 8.94, 8.49, 8.05, 7.94, 7.94, 7.97, 7.97, 7.97, 7.31, 6.88, 6.99, 6.32, 6.32, 6.6, 6.94, 6.71, 8.94, 7.98, 8.44, 8.89, 9.21, 9.21, 9.68, 9.97, 10.89, 11.18, 12.3, 12.56, 13.77, 14.17, 13.59, 12.79, 11.99, 10.8, 10.0, 9.84, 10.0, 7.67, 5.31, 5.31, 5.31, 11.18, 11.18, 11.18, 11.18, 11.18, 11.62, 11.62, 12.07, 12.07, 12.39, 12.04, 11.5, 11.26, 9.96, 9.17, 9.48, 8.73, 8.73, 8.05, 8.31, 8.31, 8.31, 8.31, 8.31, 9.02, 8.73, 8.73, 8.73, 9.17, 9.17, 8.3, 9.48, 9.17, 8.85, 8.85, 7.82, 8.53, 8.53, 8.22, 8.22, 8.53, 9.66, 9.3, 9.3, 8.94, 8.94, 10.0, 10.0, 10.38, 9.96, 10.08, 10.08, 10.08, 10.28, 9.83, 9.83, 9.39, 8.94, 8.49, 8.05, 7.94, 7.94, 7.97, 7.97, 7.97, 7.31, 6.88, 6.99, 6.32, 6.32, 6.6, 6.94, 6.71, 8.94, 7.98, 8.44, 8.77, 9.21, 9.21, 9.68, 9.97, 10.41, 11.11, 11.79, 12.04, 12.15, 13.2, 12.94, 12.36, 11.58, 11.2, 10.04, 10.4, 10.4, 8.43, 6.32, 6.32, 6.32]}, {"header": {"dx": 0.06612293990616946, "dy": 0.0552356325346848, "nx": 98, "ny": 59, "la1": 35.046912555036876, "la2": 31.78801023549047, "lo1": -121.43107172385933, "lo2": -114.95102361305473, "refTime": "2026041023", "parameterCategory": 1, "parameterNumber": 3}, "data": [13.72, 13.74, 13.59, 14.03, 14.03, 13.39, 13.44, 13.88, 13.72, 13.91, 12.81, 10.65, 9.76, 8.31, 7.68, 8.47, 9.77, 9.55, 10.05, 10.6, 10.6, 10.62, 9.42, 9.05, 9.4, 10.04, 10.63, 10.04, 10.15, 10.85, 10.85, 10.85, 11.27, 10.0, 7.63, 6.26, -0.0, -7.6, 0.0, 6.7, 8.72, 10.78, 11.35, 12.3, 13.07, 13.97, 15.59, 16.69, 15.53, 13.91, 10.63, 10.58, 9.8, 8.95, 8.95, 8.95, 8.66, 8.59, 8.87, 8.87, 8.31, 7.89, 8.05, 9.02, 10.73, 11.64, 11.66, 10.63, 10.12, 9.77, 8.74, 7.11, 6.4, 4.87, 4.0, 3.25, 1.65, 0.0, 0.0, 0.0, 9.2, 6.95, 0.0, 0.0, 0.0, 2.54, 4.83, 5.03, 6.01, 9.38, 11.21, 12.08, 12.18, 11.8, 11.12, 10.25, 8.69, 7.59, 13.72, 13.72, 13.74, 13.59, 14.03, 14.03, 14.06, 14.06, 14.36, 14.15, 12.65, 12.33, 10.04, 8.68, 9.86, 10.0, 9.92, 11.35, 10.6, 9.75, 11.45, 10.6, 10.62, 10.8, 9.42, 10.0, 10.0, 10.0, 10.43, 10.95, 11.37, 11.18, 11.61, 9.66, 8.06, 7.15, 8.05, 8.49, 7.07, 8.73, 11.76, 12.71, 12.3, 13.67, 15.02, 16.39, 16.75, 15.61, 13.6, 11.39, 10.24, 9.8, 8.95, 8.73, 9.02, 8.95, 9.36, 8.87, 8.87, 8.87, 8.87, 8.05, 8.72, 10.37, 11.26, 11.28, 10.63, 9.89, 9.7, 9.77, 8.86, 7.4, 5.79, 4.13, 3.25, 2.47, 0.8, 0.0, 0.0, 0.0, 9.2, 6.95, 0.0, 0.0, 0.0, 2.54, 4.83, 5.03, 6.01, 9.38, 11.21, 12.08, 12.18, 11.8, 11.12, 10.25, 8.69, 7.59, 13.72, 13.72, 13.74, 13.59, 14.03, 14.47, 14.5, 14.64, 14.97, 14.21, 11.87, 10.0, 10.63, 9.81, 9.42, 10.08, 11.05, 11.49, 10.84, 11.56, 10.25, 10.6, 10.21, 11.85, 11.99, 9.9, 9.9, 9.75, 10.41, 11.18, 12.04, 12.09, 12.27, 10.91, 8.33, 8.38, 8.17, 8.0, 9.33, 10.6, 12.27, 13.32, 15.02, 16.69, 17.86, 17.32, 16.75, 13.6, 11.76, 9.96, 9.89, 8.95, 8.95, 8.66, 8.79, 9.06, 9.06, 9.36, 8.87, 8.87, 8.59, 9.02, 10.03, 11.04, 11.83, 11.66, 10.58, 9.8, 8.95, 8.99, 8.25, 7.27, 5.51, 4.0, 4.0, 1.65, 0.0, 0.0, 0.0, 11.62, 10.28, 9.54, 8.4, 8.0, 7.28, 6.7, 5.84, 6.55, 8.21, 11.21, 13.27, 13.27, 12.85, 11.99, 10.79, 8.75, 7.06, 6.48, 13.72, 13.72, 14.16, 13.72, 14.18, 14.62, 15.07, 15.08, 15.09, 13.96, 12.06, 10.0, 10.8, 10.0, 10.6, 11.02, 11.49, 11.91, 11.49, 11.33, 10.18, 10.41, 10.88, 10.73, 10.96, 11.44, 9.75, 9.49, 10.14, 10.89, 11.8, 12.27, 12.41, 12.45, 10.65, 9.74, 9.89, 10.27, 11.03, 13.07, 15.38, 17.94, 17.74, 16.39, 15.59, 14.29, 10.79, 10.01, 10.01, 9.56, 8.79, 8.66, 9.06, 9.06, 9.06, 8.76, 9.06, 9.48, 9.32, 9.32, 9.02, 9.59, 11.02, 12.15, 12.27, 11.64, 10.51, 9.48, 9.02, 8.1, 8.03, 7.91, 6.66, 4.94, 4.39, 2.08, 10.4, 11.16, 12.52, 12.04, 9.7, 9.83, 9.26, 8.6, 7.81, 7.2, 7.6, 7.76, 10.38, 13.7, 14.84, 13.53, 12.3, 10.24, 8.15, 6.95, 7.59, 7.74, 13.7, 13.72, 14.16, 14.16, 14.16, 14.6, 15.17, 15.17, 15.17, 14.21, 12.22, 10.18, 10.73, 10.78, 10.58, 11.58, 11.59, 12.03, 12.03, 11.93, 12.22, 10.91, 10.41, 11.3, 10.6, 11.45, 11.78, 11.35, 11.55, 10.14, 10.6, 11.14, 11.59, 11.59, 11.09, 10.84, 10.68, 11.26, 13.99, 17.22, 17.74, 15.87, 13.34, 12.17, 11.38, 10.18, 9.66, 10.01, 9.96, 9.17, 8.76, 8.3, 9.17, 9.17, 9.56, 9.89, 9.48, 9.48, 9.8, 9.02, 9.17, 10.79, 11.92, 12.56, 12.27, 11.9, 10.51, 9.7, 9.24, 8.72, 8.99, 9.42, 8.83, 7.82, 5.51, 3.82, 8.58, 10.09, 13.99, 13.44, 9.76, 9.39, 9.39, 8.82, 7.63, 7.74, 7.95, 10.18, 12.72, 13.99, 13.53, 12.22, 11.3, 8.93, 6.64, 6.4, 8.49, 9.86, 13.7, 13.72, 14.16, 14.16, 14.16, 14.6, 15.16, 15.2, 15.2, 14.28, 11.91, 10.47, 10.84, 10.56, 11.13, 11.18, 11.62, 12.07, 12.03, 12.37, 12.35, 11.93, 12.9, 12.71, 12.45, 12.45, 12.27, 12.71, 12.27, 11.84, 9.68, 9.79, 10.28, 12.07, 13.15, 12.42, 10.99, 9.8, 13.24, 16.75, 15.12, 12.79, 11.2, 10.81, 10.56, 9.76, 8.64, 9.3, 8.85, 8.42, 8.12, 8.42, 9.26, 9.59, 10.3, 9.89, 9.17, 9.48, 9.92, 9.48, 9.3, 10.96, 12.87, 13.11, 12.86, 12.22, 10.75, 9.4, 9.36, 8.72, 9.27, 8.86, 9.67, 8.99, 7.76, 5.6, 7.81, 6.64, 8.72, 12.47, 8.94, 8.94, 8.49, 8.05, 8.05, 8.82, 10.32, 13.88, 14.75, 13.96, 12.44, 12.14, 10.27, 6.87, 6.64, 8.0, 10.8, 11.44, 13.7, 13.72, 13.72, 14.16, 14.6, 15.16, 15.16, 15.2, 15.2, 13.41, 11.15, 10.21, 10.25, 10.25, 11.62, 11.18, 12.07, 12.52, 12.52, 12.47, 12.92, 14.26, 14.75, 15.15, 14.68, 14.22, 15.11, 14.03, 12.85, 10.5, 10.41, 9.35, 9.83, 10.28, 11.55, 13.15, 12.13, 9.8, 10.47, 12.56, 13.75, 12.14, 12.25, 11.37, 11.09, 9.77, 9.3, 8.67, 8.37, 8.24, 8.24, 8.53, 9.59, 9.59, 9.59, 9.59, 9.59, 8.85, 9.17, 9.3, 10.18, 12.21, 13.23, 13.11, 12.86, 12.22, 11.38, 10.43, 9.4, 9.24, 8.14, 6.73, 6.8, 7.26, 6.3, 3.52, 4.1, 7.33, 9.36, 10.89, 11.18, 10.7, 9.39, 10.18, 11.18, 11.18, 14.3, 15.49, 14.6, 13.41, 11.98, 11.18, 6.7, 6.52, 7.28, 9.2, 11.87, 12.3, 13.25, 13.7, 14.16, 14.58, 15.02, 15.15, 15.15, 15.2, 14.75, 12.96, 10.73, 9.39, 10.28, 11.18, 12.52, 11.18, 12.07, 12.96, 12.96, 12.96, 13.34, 13.41, 13.41, 15.65, 15.58, 14.6, 15.2, 15.18, 13.81, 12.56, 11.98, 12.07, 12.52, 12.52, 10.84, 10.87, 9.96, 7.59, 8.38, 10.4, 11.6, 12.74, 13.97, 14.19, 12.22, 9.48, 8.85, 8.67, 8.67, 9.48, 8.22, 8.97, 9.69, 9.69, 9.69, 8.85, 8.53, 8.97, 8.22, 8.69, 9.81, 12.53, 13.23, 12.7, 12.27, 11.87, 11.38, 10.65, 9.6, 8.31, 6.52, 4.87, 3.28, 2.72, 2.57, 0.84, 0.0, 11.21, 11.28, 12.85, 12.07, 10.96, 10.02, 11.18, 11.21, 12.71, 13.86, 14.3, 13.41, 12.52, 10.28, 6.64, 6.8, 7.53, 8.06, 10.47, 12.88, 12.66, 13.67, 14.14, 14.14, 14.58, 15.02, 15.15, 15.15, 15.2, 14.3, 12.47, 10.7, 10.16, 12.96, 12.96, 12.52, 12.52, 12.9, 12.91, 13.41, 12.96, 13.41, 13.41, 13.41, 14.3, 12.52, 11.62, 9.83, 13.23, 15.04, 13.32, 13.72, 15.2, 15.2, 13.59, 10.04, 8.22, 7.59, 8.58, 8.03, 8.38, 10.41, 11.64, 10.99, 9.17, 9.16, 8.22, 9.48, 10.43, 10.3, 10.38, 10.43, 9.42, 9.42, 9.76, 9.76, 8.64, 9.08, 8.73, 8.35, 9.17, 11.45, 12.96, 12.3, 12.15, 11.66, 11.25, 11.06, 10.54, 9.49, 7.82, 5.62, 3.59, 1.72, 0.0, 0.0, 0.0, -0.86, 5.77, 13.83, 16.54, 15.51, 10.96, 10.52, 10.52, 11.4, 10.8, 11.2, 11.6, 9.67, 10.28, 7.6, 6.51, 7.08, 7.55, 8.45, 11.62, 13.33, 12.22, 14.11, 14.14, 14.58, 14.58, 15.02, 15.15, 15.15, 15.2, 14.3, 12.52, 11.57, 11.88, 12.01, 13.86, 13.86, 13.41, 14.19, 14.31, 14.11, 12.79, 12.52, 12.96, 13.86, 14.3, 13.86, 11.18, 8.94, 10.73, 14.75, 14.11, 14.3, 16.09, 15.2, 11.99, 9.66, 8.58, 7.27, 7.33, 9.08, 9.17, 9.17, 8.61, 7.72, 7.13, 7.59, 8.22, 8.53, 9.59, 10.3, 10.3, 10.03, 10.48, 9.89, 9.52, 9.16, 8.82, 9.97, 9.16, 9.17, 10.0, 12.63, 13.39, 13.62, 11.83, 10.98, 10.22, 10.01, 9.3, 8.26, 6.6, 4.76, 3.59, 2.35, 0.0, 0.0, -1.77, -2.93, 8.85, 12.79, 14.57, 17.02, 15.07, 10.0, 8.8, 8.94, 6.95, 4.8, 5.7, 4.2, 0.0, 6.71, 6.71, 7.15, 8.05, 9.83, 12.52, 13.79, 10.91, 14.11, 14.11, 14.58, 14.58, 14.55, 15.15, 15.15, 14.75, 13.86, 12.52, 12.47, 12.9, 13.34, 13.86, 14.3, 14.3, 15.87, 13.97, 13.2, 14.79, 16.54, 17.2, 16.99, 14.75, 14.75, 12.07, 10.28, 10.28, 12.96, 13.88, 13.01, 12.79, 11.4, 10.4, 9.08, 8.22, 7.9, 8.73, 8.22, 8.51, 8.2, 8.23, 7.41, 8.22, 6.87, 7.59, 8.35, 8.73, 9.08, 9.4, 11.04, 11.04, 11.41, 11.02, 10.4, 9.97, 10.4, 10.16, 10.16, 10.92, 13.55, 13.82, 12.56, 12.03, 11.34, 10.12, 9.16, 8.45, 8.05, 6.65, 5.6, 4.98, 4.27, 0.95, -1.19, -4.11, 0.0, 12.45, 14.4, 14.64, 14.84, 14.79, 11.64, 8.93, 7.03, 7.21, -0.0, -0.0, -4.2, -0.0, 6.71, 7.15, 7.15, 8.94, 11.18, 13.86, 12.45, 9.64, 14.11, 14.11, 14.11, 14.55, 14.55, 14.55, 15.15, 14.69, 13.86, 12.96, 12.96, 13.41, 14.3, 14.3, 13.41, 12.42, 12.52, 14.03, 14.53, 13.26, 11.38, 12.22, 14.84, 15.78, 13.15, 11.6, 11.2, 7.06, 10.28, 8.94, 9.33, 9.2, 9.2, 7.51, 7.27, 7.27, 6.69, 6.97, 6.7, 6.9, 7.13, 7.69, 7.51, 8.22, 7.27, 7.51, 10.09, 10.4, 10.8, 11.44, 11.92, 13.11, 14.33, 14.84, 13.65, 12.72, 13.97, 12.11, 10.05, 11.71, 13.82, 13.15, 12.79, 11.76, 11.34, 11.6, 11.83, 11.38, 10.12, 9.89, 8.46, 7.38, 5.62, 1.33, -2.2, -3.25, 11.99, 14.25, 14.35, 13.6, 12.79, 11.64, 10.66, 9.4, 7.96, 6.98, -0.0, -5.46, -6.64, -5.69, 7.15, 8.67, 6.57, 9.16, 11.57, 12.96, 11.57, 8.77, 14.07, 14.11, 14.11, 14.55, 14.55, 14.51, 14.69, 14.25, 14.23, 13.41, 13.41, 13.86, 14.3, 14.75, 15.2, 15.08, 13.72, 12.79, 12.52, 12.04, 9.48, 7.19, 7.19, 6.43, 6.43, 6.21, 6.94, 9.77, 9.58, 8.94, 9.64, 9.58, 8.73, 8.38, 8.03, 6.95, 6.4, 6.71, 5.43, 5.2, 5.6, 7.19, 7.85, 7.59, 7.68, 10.32, 10.88, 11.3, 11.03, 11.44, 10.95, 11.87, 13.05, 13.96, 15.68, 16.33, 14.96, 14.18, 11.03, 11.46, 12.96, 12.45, 11.42, 11.16, 11.66, 11.9, 12.76, 14.42, 14.39, 14.26, 13.63, 10.92, 8.83, 5.2, 8.22, 13.23, 15.04, 15.42, 14.27, 13.29, 12.33, 11.28, 9.84, 9.06, 8.53, 6.04, 3.98, 0.0, 4.2, 5.36, 6.01, 6.11, 7.06, 8.18, 10.79, 12.75, 10.68, 9.24, 14.07, 14.07, 14.07, 14.07, 14.51, 14.51, 14.51, 14.23, 14.23, 13.86, 13.86, 14.3, 14.75, 15.11, 15.53, 15.97, 15.53, 14.61, 14.47, 14.3, 12.27, 8.94, 4.66, 4.05, 2.15, 3.81, 6.2, 8.66, 11.12, 11.21, 10.28, 9.96, 9.3, 8.03, 7.27, 7.21, 6.64, 6.69, 4.99, 4.36, 4.54, 6.5, 7.9, 9.58, 9.46, 9.97, 8.99, 10.05, 10.46, 10.4, 10.88, 10.84, 10.84, 11.28, 10.88, 9.84, 11.72, 12.8, 12.82, 10.68, 12.09, 13.02, 13.02, 12.56, 11.83, 12.62, 12.64, 13.33, 14.03, 12.51, 12.84, 11.38, 9.8, 9.58, 10.2, 13.99, 16.44, 15.19, 13.87, 12.89, 11.9, 10.18, 8.73, 8.05, 7.36, 6.45, 6.86, 7.59, 7.02, 7.27, 7.27, 7.94, 8.3, 8.38, 9.05, 10.92, 9.97, 9.49, 14.07, 14.07, 14.07, 14.07, 14.07, 14.51, 14.47, 14.47, 14.23, 14.3, 14.3, 14.3, 14.75, 15.12, 15.99, 16.41, 15.61, 15.07, 14.53, 15.65, 14.9, 13.03, 6.8, -0.0, -0.0, -0.0, 4.3, 8.18, 11.17, 12.45, 12.71, 10.96, 10.0, 8.23, 8.23, 8.43, 7.27, 6.11, 4.4, 4.4, 6.24, 9.08, 9.58, 9.6, 9.03, 9.03, 9.46, 9.04, 9.04, 8.93, 9.32, 9.45, 9.2, 7.28, 6.63, 7.81, 7.9, 8.9, 11.15, 12.27, 11.37, 11.6, 11.5, 11.88, 12.27, 12.56, 12.95, 12.27, 10.01, 8.85, 9.8, 9.7, 8.38, 7.59, 10.99, 14.79, 14.99, 13.39, 11.88, 11.14, 10.01, 8.95, 7.19, 6.44, 5.0, 6.08, 7.59, 9.43, 9.56, 9.66, 9.0, 8.3, 8.3, 8.3, 8.79, 10.43, 10.32, 10.32, 14.03, 14.07, 14.07, 13.8, 14.07, 14.03, 14.03, 14.47, 14.68, 14.3, 14.3, 14.75, 14.75, 15.12, 15.71, 16.05, 15.61, 15.49, 14.18, 14.39, 15.34, 15.53, 15.34, -0.0, -0.0, 2.65, 6.16, 7.76, 10.43, 12.79, 13.67, 13.86, 10.35, 7.27, 8.43, 7.2, 7.13, 5.72, 5.75, 7.59, 8.55, 9.6, 9.6, 8.8, 8.91, 8.48, 8.48, 8.0, 7.44, 7.81, 8.18, 7.81, 8.18, 7.81, 6.98, 6.98, 6.64, 6.58, 8.85, 10.23, 9.43, 9.3, 8.22, 8.53, 8.82, 9.16, 8.31, 8.85, 8.15, 8.15, 7.78, 8.56, 7.93, 7.38, 11.38, 12.71, 11.53, 10.43, 9.53, 8.31, 7.74, 6.88, 6.56, 5.86, 4.92, 6.95, 8.73, 9.67, 9.66, 8.93, 8.22, 7.64, 7.94, 8.94, 10.0, 10.4, 10.09, 10.09, 13.7, 14.03, 14.03, 13.27, 13.7, 14.03, 14.03, 14.4, 14.66, 14.75, 14.75, 14.75, 14.75, 15.2, 15.55, 15.61, 15.27, 15.11, 12.92, 11.7, 14.94, 15.78, 16.09, 0.0, -10.75, 8.43, 13.02, 13.02, 12.02, 14.39, 15.43, 15.65, 14.55, 12.14, 7.4, 7.37, 8.22, 9.55, 9.2, 9.55, 10.18, 8.79, 8.8, 7.53, 8.0, 8.48, 8.0, 6.98, 6.32, 5.59, 5.59, 6.32, 6.64, 7.56, 7.56, 7.56, 6.3, 6.3, 6.24, 8.22, 8.22, 6.98, 6.24, 5.32, 4.8, 5.21, 6.3, 6.3, 7.56, 9.84, 9.8, 7.58, 7.27, 8.03, 9.52, 10.18, 9.67, 9.17, 8.2, 6.99, 7.0, 6.37, 6.4, 6.76, 7.18, 8.02, 8.68, 9.62, 9.26, 8.53, 7.9, 7.59, 8.94, 10.15, 11.02, 10.48, 10.15, 10.15, 13.7, 14.03, 13.7, 13.27, 13.27, 13.7, 13.57, 13.96, 14.66, 14.66, 14.75, 14.75, 14.75, 15.2, 15.11, 14.66, 14.84, 14.94, 12.71, 11.38, 14.53, 15.09, 15.2, 13.7, 13.19, 14.75, 15.53, 15.49, 15.93, 16.37, 16.54, 16.54, 16.54, 14.75, 10.18, 7.06, 8.38, 9.54, 9.2, 9.2, 8.72, 7.89, 7.2, 7.89, 7.67, 7.67, 6.98, 5.59, 5.59, 4.96, 4.96, 5.59, 6.32, 6.32, 6.64, 6.64, 6.3, 6.3, 7.27, 6.98, 6.5, 5.92, 4.8, 3.61, 3.61, 3.32, 3.27, 4.37, 6.14, 7.56, 8.05, 6.54, 7.4, 7.22, 8.03, 9.62, 8.39, 7.74, 6.81, 6.14, 5.11, 5.5, 5.92, 8.1, 7.9, 8.22, 8.53, 8.93, 8.93, 8.85, 8.53, 8.31, 8.94, 10.15, 10.66, 10.66, 9.92, 9.92, 13.57, 13.7, 13.27, 13.27, 13.27, 13.15, 13.57, 13.96, 14.66, 14.66, 14.75, 14.75, 14.75, 14.75, 14.75, 16.09, 14.22, 14.53, 13.27, 14.9, 14.61, 15.09, 14.75, 15.65, 14.75, 16.54, 12.52, 16.54, 17.43, 14.75, 15.49, 15.93, 16.54, 16.09, 14.3, 10.73, 8.77, 8.0, 7.27, 9.3, 8.43, 7.51, 6.64, 7.15, 6.64, 5.86, 5.86, 4.96, 4.0, 4.0, 5.21, 6.32, 7.33, 6.98, 7.21, 6.64, 6.3, 7.27, 6.98, 6.24, 4.8, 4.8, 3.53, 2.59, 2.59, 2.57, 2.54, 2.98, 2.97, 2.93, 3.65, 5.72, 7.33, 7.33, 6.97, 6.16, 4.95, 4.95, 5.06, 4.95, 4.89, 6.4, 7.36, 8.21, 7.36, 7.36, 7.36, 7.08, 8.22, 8.22, 8.93, 9.34, 9.67, 10.15, 10.66, 10.66, 9.62, 9.62, 13.57, 13.57, 13.15, 13.15, 13.15, 13.15, 13.57, 13.57, 14.4, 14.64, 14.75, 14.75, 14.75, 14.75, 14.6, 14.19, 14.64, 14.22, 15.53, 15.2, 16.54, 15.57, 15.2, 16.54, 16.09, 16.54, 16.54, 14.75, 15.2, 15.49, 15.93, 15.47, 15.47, 16.31, 16.09, 13.59, 9.67, 5.95, 4.2, 4.83, 4.37, 4.6, 4.0, 4.44, 4.44, 5.29, 4.83, 4.2, 4.2, 4.0, 5.59, 6.98, 7.44, 7.44, 6.45, 6.32, 7.27, 6.24, 5.9, 5.0, 3.77, 3.61, 2.6, 2.49, 2.57, 2.69, 3.45, 3.63, 3.82, 2.82, 3.46, 4.98, 5.73, 4.88, 3.36, 1.83, 0.0, 0.0, 2.89, 4.47, 5.85, 7.49, 7.28, 6.96, 6.45, 6.2, 6.05, 6.05, 7.08, 7.59, 8.93, 10.01, 10.29, 10.66, 10.19, 10.24, 9.56, 9.56, 12.66, 13.57, 13.15, 13.15, 13.15, 13.15, 13.57, 13.57, 14.31, 14.64, 14.64, 14.64, 14.64, 14.6, 15.05, 15.2, 15.2, 13.86, 12.96, 15.2, 16.99, 16.09, 16.09, 15.2, 15.2, 15.65, 15.2, 15.65, 16.09, 16.54, 16.37, 15.9, 15.9, 15.9, 16.31, 14.11, 11.99, 8.22, 4.8, 4.0, 4.0, 3.49, 3.65, 4.4, 3.7, 3.98, 3.49, 2.97, 2.97, 4.6, 6.98, 8.0, 8.0, 7.44, 7.21, 6.32, 6.64, 6.14, 5.69, 3.61, 3.61, 3.61, 2.49, 3.61, 4.34, 4.34, 5.36, 5.46, 6.0, 5.86, 5.8, 5.06, 5.16, 2.54, 0.0, -2.04, -2.34, 0.0, 4.95, 7.21, 8.2, 8.43, 7.88, 7.26, 6.53, 5.9, 6.04, 6.83, 7.97, 7.64, 9.4, 10.66, 10.63, 10.19, 9.84, 9.17, 8.49, 8.49, 12.39, 12.66, 13.15, 12.66, 12.66, 12.66, 12.66, 13.39, 13.81, 14.31, 14.64, 14.64, 14.6, 14.6, 14.6, 15.2, 15.2, 14.3, 13.86, 14.55, 15.87, 16.09, 15.65, 15.65, 16.54, 16.99, 16.54, 15.65, 15.65, 16.09, 16.37, 15.9, 15.9, 15.9, 15.9, 15.27, 12.65, 10.37, 6.71, 6.17, 5.36, 5.63, 4.83, 4.83, 2.69, 3.17, 3.11, 3.11, 4.83, 6.32, 7.28, 7.6, 6.98, 6.98, 6.64, 6.64, 6.64, 6.83, 5.98, 4.88, 4.2, 3.65, 3.49, 5.21, 5.76, 6.95, 7.35, 8.38, 9.0, 10.09, 9.8, 9.73, 8.2, 5.4, 0.0, 1.9, 5.96, 8.0, 9.67, 8.7, 8.46, 7.82, 7.54, 7.5, 8.66, 8.53, 7.35, 8.02, 8.65, 9.69, 9.66, 10.19, 10.18, 9.53, 9.53, 8.79, 8.3, 8.3, 12.39, 12.39, 12.39, 12.39, 12.39, 12.39, 12.39, 12.79, 13.81, 14.31, 14.75, 15.05, 14.18, 13.99, 14.6, 15.2, 15.2, 14.75, 14.11, 14.55, 15.87, 15.65, 14.75, 15.2, 16.09, 16.86, 17.43, 16.99, 16.54, 15.65, 15.65, 15.93, 15.47, 15.47, 15.47, 14.39, 13.42, 10.47, 8.22, 7.59, 6.95, 5.63, 4.83, 4.6, 3.6, 2.82, 3.65, 3.49, 6.01, 6.9, 7.28, 6.63, 6.63, 6.98, 6.98, 6.64, 7.06, 6.53, 6.24, 4.5, 4.74, 5.63, 5.89, 6.18, 6.95, 7.68, 8.42, 8.42, 9.04, 9.0, 9.76, 9.8, 7.45, 5.81, 5.52, 5.36, 7.18, 8.43, 8.05, 7.18, 6.27, 6.43, 6.4, 7.44, 9.97, 9.77, 8.73, 9.0, 9.66, 9.62, 10.01, 9.56, 9.53, 8.79, 8.79, 8.09, 8.09, 8.09, 12.39, 12.39, 12.39, 12.39, 12.39, 12.39, 12.39, 12.79, 13.81, 13.81, 14.61, 14.61, 14.61, 14.18, 15.05, 15.2, 15.2, 14.75, 14.75, 14.55, 14.84, 15.87, 15.2, 14.3, 14.75, 15.97, 16.86, 17.43, 17.43, 16.54, 16.09, 15.2, 15.49, 15.04, 14.38, 13.99, 13.99, 10.82, 9.42, 8.38, 8.03, 7.27, 6.14, 4.6, 2.54, 2.26, 3.65, 4.83, 6.01, 6.28, 6.63, 6.63, 6.01, 6.01, 6.63, 6.98, 6.45, 6.18, 6.87, 6.95, 5.69, 6.01, 7.06, 6.95, 6.95, 7.68, 8.42, 9.48, 8.42, 7.68, 6.42, 4.91, 7.42, 7.33, 6.42, 5.31, 3.68, 3.34, 2.81, 3.18, 2.0, 2.72, 4.81, 10.43, 11.57, 10.48, 9.34, 9.62, 9.96, 9.89, 8.93, 8.53, 8.79, 8.09, 8.09, 7.28, 8.09, 8.09, 11.28, 11.28, 12.39, 12.39, 11.99, 11.99, 12.39, 12.42, 12.42, 13.56, 13.97, 13.97, 13.59, 14.61, 15.05, 15.05, 14.55, 14.75, 14.75, 14.99, 14.84, 15.9, 16.37, 15.65, 14.75, 15.08, 16.37, 16.82, 16.99, 16.99, 16.54, 16.09, 15.49, 14.61, 13.59, 13.59, 12.65, 12.27, 10.41, 8.93, 8.03, 7.68, 5.86, 4.2, 2.69, 1.07, 0.94, 2.4, 3.91, 4.83, 5.24, 6.14, 4.83, 5.69, 6.01, 6.01, 5.59, 5.69, 6.95, 7.56, 6.95, 6.01, 6.32, 6.48, 6.64, 7.76, 8.42, 8.42, 7.68, 5.29, 3.53, 3.38, 6.99, 8.94, 7.0, 4.88, 2.72, 1.23, 0.0, 0.0, 0.0, 1.08, 7.28, 12.22, 12.45, 9.69, 8.93, 9.96, 9.89, 9.8, 9.24, 8.09, 7.63, 7.51, 7.36, 7.36, 7.36, 7.36, 11.28, 11.28, 10.91, 11.64, 11.64, 11.64, 12.03, 12.42, 12.81, 13.56, 13.56, 13.59, 13.59, 15.04, 15.04, 15.05, 14.55, 14.55, 14.55, 14.99, 15.43, 16.37, 16.82, 16.37, 16.09, 15.2, 15.49, 16.37, 16.99, 16.99, 16.99, 16.54, 16.37, 15.04, 13.59, 13.59, 13.59, 13.59, 12.39, 9.3, 8.55, 8.03, 6.95, 5.21, 2.46, 1.0, 0.0, 0.94, 2.83, 4.21, 4.21, 4.22, 5.36, 5.37, 6.01, 6.01, 5.31, 6.01, 6.98, 6.95, 6.3, 6.58, 5.1, 5.36, 6.32, 8.43, 8.82, 8.79, 6.83, 5.29, 3.67, 3.76, 5.12, 8.25, 9.6, 7.81, 5.07, 0.0, 0.0, 0.0, 1.33, 5.19, 10.39, 12.29, 10.73, 9.96, 9.89, 9.89, 9.06, 8.73, 8.84, 8.01, 7.36, 7.36, 7.36, 7.51, 7.36, 7.36, 10.91, 10.91, 10.91, 10.91, 10.91, 12.03, 12.03, 12.42, 12.81, 12.27, 13.19, 13.59, 13.59, 15.04, 15.04, 14.61, 13.99, 14.55, 14.55, 14.99, 15.43, 15.93, 16.37, 16.82, 16.54, 16.09, 15.49, 15.93, 16.31, 16.54, 16.54, 16.09, 15.93, 15.2, 14.79, 14.39, 13.99, 13.99, 13.59, 12.39, 9.67, 8.55, 6.95, 4.66, 3.14, 0.0, 0.0, 0.0, 2.99, 4.14, 5.03, 5.03, 3.97, 4.58, 4.47, 4.58, 4.37, 5.69, 6.18, 5.69, 5.46, 5.63, 5.7, 5.53, 7.9, 7.81, 8.42, 6.83, 6.15, 4.44, 3.53, 2.71, 3.38, 6.37, 9.72, 9.63, 8.0, 4.94, 4.54, 5.4, 6.94, 8.94, 11.76, 11.44, 9.9, 10.52, 10.84, 9.8, 9.06, 8.3, 7.54, 7.44, 7.78, 7.51, 7.36, 6.77, 6.53, 6.53, 10.3, 10.3, 10.91, 10.91, 10.91, 11.28, 11.28, 11.64, 12.0, 12.27, 12.27, 12.65, 13.97, 15.04, 14.38, 14.38, 14.18, 14.18, 15.05, 15.49, 15.49, 15.27, 15.69, 16.31, 16.54, 16.54, 16.09, 15.43, 15.43, 16.09, 16.09, 16.09, 15.87, 15.27, 14.39, 14.39, 14.39, 13.99, 13.99, 13.19, 11.6, 8.93, 7.21, 6.11, 5.46, 2.28, -9.39, 0.0, 3.6, 5.37, 5.69, 5.03, 4.75, 4.75, 3.68, 3.45, 4.56, 4.83, 5.84, 5.69, 4.68, 4.56, 4.78, 6.32, 7.81, 8.73, 7.27, 5.46, 4.25, 3.53, 2.61, 1.84, 0.86, 2.49, 4.88, 7.17, 6.37, 7.04, 6.95, 5.64, 5.52, 6.86, 8.97, 11.34, 10.55, 10.15, 9.43, 8.84, 8.18, 7.12, 6.56, 6.79, 7.63, 7.38, 7.01, 6.77, 6.21, 6.21, 10.3, 10.3, 10.3, 10.91, 10.91, 11.28, 11.28, 11.64, 11.33, 11.33, 12.27, 12.65, 13.97, 14.38, 14.38, 14.38, 13.97, 14.18, 14.61, 15.04, 15.04, 14.84, 15.27, 16.31, 16.54, 16.54, 16.09, 15.65, 15.43, 15.65, 16.09, 16.09, 16.09, 15.27, 14.39, 14.39, 14.39, 14.39, 14.84, 13.99, 12.39, 8.73, 7.81, 7.68, 8.18, 6.32, -9.83, -9.2, 9.39, 6.32, 6.08, 5.69, 4.75, 4.19, 3.68, 2.12, 3.2, 4.56, 5.06, 4.87, 3.99, 3.63, 4.98, 6.64, 7.76, 7.27, 6.59, 4.6, 2.7, 2.49, 1.77, 1.77, 0.89, 0.0, 0.0, 2.4, 4.79, 6.54, 6.2, 4.99, 3.51, 4.83, 8.31, 8.82, 10.18, 9.1, 8.29, 7.49, 6.65, 5.8, 5.6, 5.6, 5.29, 6.43, 6.43, 6.0, 5.8, 5.8, 9.48, 9.48, 10.3, 10.3, 10.91, 11.28, 10.65, 10.99, 11.33, 11.33, 11.33, 12.27, 13.97, 14.38, 14.38, 13.58, 14.38, 13.97, 14.61, 14.61, 15.04, 14.42, 14.84, 15.47, 15.93, 16.54, 16.09, 15.65, 15.65, 15.65, 15.65, 15.65, 15.65, 14.84, 13.99, 13.99, 14.39, 15.27, 14.84, 13.99, 12.65, 10.73, 8.03, 6.63, 5.49, 5.86, 0.0, 10.8, 10.6, 9.04, 6.32, 4.11, 5.06, 3.72, 2.8, 2.26, 2.26, 2.64, 3.2, 3.0, 2.82, 3.14, 4.5, 6.32, 6.18, 6.04, 6.31, 5.32, 2.97, 2.04, 1.92, 3.42, 3.46, 1.72, 0.0, 0.0, 3.09, 5.36, 5.73, 5.63, 6.1, 5.95, 6.65, 6.92, 6.65, 7.44, 5.8, 4.94, 4.31, 3.53, 3.6, 3.96, 3.73, 5.28, 6.0, 5.46, 5.46, 5.46, 9.48, 9.48, 10.3, 10.3, 10.3, 10.65, 10.65, 10.99, 11.33, 10.43, 10.43, 10.43, 13.97, 14.38, 14.38, 13.58, 13.58, 13.97, 14.61, 13.97, 13.59, 13.59, 14.42, 15.04, 15.93, 15.93, 16.09, 15.43, 14.99, 15.2, 15.65, 15.65, 15.2, 14.9, 14.42, 13.59, 13.99, 14.84, 14.84, 13.99, 13.03, 9.48, 7.9, 6.64, 4.83, 5.06, 7.44, 9.48, 10.01, 8.15, 5.84, 3.48, 3.16, 2.98, 2.73, 2.64, 1.96, 1.25, 1.25, 1.1, 1.07, 2.98, 4.74, 4.56, 4.56, 3.63, 4.56, 5.32, 5.1, 3.11, 2.97, 4.44, 6.2, 5.09, 2.72, 0.0, 1.28, 3.16, 5.15, 6.43, 7.78, 9.92, 8.05, 6.36, 4.6, 3.98, 2.49, 2.13, 1.43, 1.46, 1.5, 2.22, 2.39, 2.47, 4.38, 4.66, 4.51, 4.51, 8.59, 8.59, 10.3, 10.3, 10.3, 10.65, 10.65, 10.99, 11.33, 10.43, 10.43, 10.43, 11.33, 13.97, 14.38, 13.58, 13.58, 14.38, 14.38, 13.59, 13.59, 13.59, 14.84, 15.04, 15.04, 15.93, 15.93, 15.05, 16.22, 14.3, 15.2, 15.65, 15.2, 14.9, 13.99, 14.42, 13.59, 14.84, 13.99, 13.42, 13.42, 10.12, 8.22, 5.9, 4.4, 3.98, 4.75, 7.11, 8.15, 6.64, 4.29, 4.43, 3.63, 3.22, 2.11, 2.11, 1.84, 1.01, 0.0, 0.0, 0.0, 1.84, 3.63, 3.15, 2.57, 2.83, 1.84, 2.7, 4.23, 4.23, 3.81, 4.4, 5.45, 5.0, 4.66, 2.34, 1.24, 2.81, 4.51, 5.9, 7.53, 7.8, 6.81, 4.66, 3.34, 1.5, 0.73, 0.0, 0.0, 0.0, 0.0, 0.0, 0.81, 0.81, 2.63, 2.63, 2.81, 2.81, 8.59, 8.59, 9.48, 10.3, 10.3, 10.65, 10.65, 10.99, 11.33, 10.43, 8.57, 8.57, 10.43, 12.27, 14.38, 13.58, 13.58, 13.02, 13.02, 12.65, 13.99, 14.84, 14.84, 14.61, 15.04, 15.43, 15.43, 15.2, 14.3, 16.09, 14.3, 15.2, 15.43, 15.43, 14.99, 14.42, 14.42, 14.42, 13.99, 13.42, 12.22, 10.43, 8.85, 6.17, 4.6, 2.19, 3.68, 5.8, 6.45, 4.71, 4.71, 4.46, 4.22, 3.2, 2.64, 2.2, 1.41, 0.78, 0.0, 0.0, 0.0, 1.84, 2.83, 2.83, 2.69, 2.69, 1.84, 1.84, 2.82, 2.6, 3.36, 3.51, 2.71, 1.78, 3.68, 5.75, 3.69, 3.19, 3.73, 4.24, 4.52, 4.95, 3.79, 2.87, 0.95, 0.0, -0.81, -2.14, -1.61, -1.6, -0.89, -0.83, -0.83, 0.0, 0.0, 1.97, 2.62, 2.62, 8.3, 8.3, 8.59, 10.3, 10.3, 10.65, 10.65, 10.99, 10.12, 10.43, 8.57, 8.57, 10.43, 12.27, 13.59, 13.99, 13.02, 12.65, 11.87, 13.02, 13.99, 14.84, 14.84, 14.42, 14.42, 14.84, 15.43, 14.99, 15.2, 14.75, 14.55, 14.55, 14.55, 14.99, 14.99, 14.42, 14.42, 14.42, 14.84, 13.42, 12.22, 10.75, 9.48, 5.52, 3.82, 2.19, 4.32, 4.65, 6.21, 5.86, 5.59, 5.59, 3.8, 3.6, 2.09, 1.96, 1.63, 1.36, 0.72, 0.0, 0.0, 1.58, 3.15, 4.0, 2.83, 2.98, 2.69, 2.69, 2.7, 3.77, 4.25, 3.92, 1.28, 0.89, 2.85, 6.35, 5.92, 3.25, 2.97, 2.2, 2.43, 2.65, 1.93, 1.98, 1.09, 0.0, -0.96, -2.44, -2.54, -2.62, -1.71, -1.84, -0.86, 0.0, 0.89, 1.77, 2.62, 2.62, 8.3, 8.3, 8.59, 10.3, 10.3, 10.3, 10.65, 10.99, 10.12, 8.57, 8.57, 8.57, 9.44, 11.33, 13.59, 13.99, 12.65, 11.87, 11.87, 13.99, 13.99, 13.99, 14.84, 14.84, 14.42, 14.42, 15.43, 14.99, 15.2, 15.2, 14.55, 14.11, 14.11, 14.03, 14.47, 14.11, 14.42, 14.42, 14.42, 13.42, 13.42, 11.87, 9.8, 5.98, 2.02, 0.0, 3.68, 6.7, 7.24, 6.17, 5.06, 4.83, 4.37, 3.8, 2.21, 2.09, 1.84, 1.55, 0.74, 0.0, 0.0, 1.58, 2.99, 2.69, 2.83, 2.83, 2.98, 3.63, 2.7, 3.51, 3.02, 3.68, 1.25, 0.86, 2.65, 5.14, 6.5, 5.94, 2.72, 2.01, 0.95, 2.0, 2.13, 2.07, 2.07, 0.99, 0.0, 0.0, 0.0, 0.0, 0.0, 0.0, 0.97, 1.84, 2.53, 3.32, 3.32, 3.32, 8.3, 8.3, 8.59, 10.3, 10.3, 10.3, 10.65, 9.8, 10.12, 8.31, 8.57, 8.57, 9.44, 10.43, 12.27, 13.59, 11.87, 11.87, 11.87, 13.99, 13.99, 13.99, 14.38, 14.84, 14.84, 14.42, 14.99, 14.99, 14.55, 14.55, 14.55, 14.55, 14.03, 13.59, 14.03, 14.03, 14.55, 14.99, 14.42, 14.11, 13.03, 11.87, 10.12, 6.21, 0.0, 0.0, 0.0, 10.4, 10.04, 8.94, 5.9, 5.9, 4.83, 2.83, 2.54, 2.21, 1.95, 0.84, 0.79, 0.64, 0.0, 0.61, 1.58, 1.84, 1.84, 2.58, 2.69, 1.84, 1.68, 1.76, 2.42, 2.6, 2.4, 2.63, 2.64, 4.29, 5.87, 6.05, 5.5, 5.1, 3.93, 3.18, 2.81, 2.72, 2.81, 3.68, 2.92, 3.55, 3.42, 3.29, 3.29, 2.51, 2.71, 2.82, 2.53, 2.53, 3.32, 3.32, 8.3, 8.3, 8.59, 10.3, 10.3, 10.3, 9.8, 9.8, 9.16, 8.31, 8.31, 7.32, 8.18, 10.43, 12.27, 12.65, 12.65, 11.87, 13.59, 13.99, 13.99, 13.99, 14.38, 15.04, 14.42, 14.42, 14.42, 14.99, 14.55, 14.55, 14.47, 14.47, 14.03, 13.59, 13.59, 13.67, 14.11, 14.55, 14.47, 14.11, 13.03, 13.03, 9.8, 8.22, 0.0, -6.64, -0.0, 11.18, 11.28, 10.4, 8.58, 6.17, 5.06, 3.49, 2.69, 2.21, 1.0, 1.0, 0.79, 0.69, 0.0, 0.0, 0.0, 0.94, 1.84, 1.33, 1.84, 0.89, 0.93, 1.68, 1.76, 3.29, 3.53, 3.47, 2.98, 2.81, 3.28, 4.98, 6.46, 7.35, 6.36, 4.18, 3.32, 3.55, 4.21, 4.36, 4.1, 3.91, 3.91, 3.19, 2.34, 2.34, 1.58, 1.77, 1.0, 0.93, 0.93, 2.53, 8.3, 8.3, 8.3, 9.48, 10.3, 10.3, 9.8, 8.87, 9.16, 8.31, 7.58, 7.1, 7.93, 10.12, 12.27, 12.65, 12.65, 12.65, 13.59, 13.99, 13.99, 13.99, 13.99, 13.99, 14.84, 14.42, 14.42, 14.99, 14.55, 14.47, 14.03, 14.03, 14.03, 13.59, 13.59, 13.67, 13.67, 14.03, 14.47, 13.7, 13.7, 13.59, 11.5, 9.2, 6.01, 0.0, 7.9, 11.62, 11.84, 11.21, 9.3, 6.71, 4.8, 3.49, 2.69, 1.32, 1.2, 1.05, 0.84, 0.74, 0.0, 0.0, 0.0, 1.01, 0.89, 1.33, 1.26, 1.84, 1.75, 1.84, 2.7, 4.08, 3.73, 3.91, 4.1, 2.09, 1.02, 1.88, 4.14, 6.5, 6.28, 4.81, 4.51, 4.65, 5.11, 4.1, 3.87, 3.11, 2.37, 1.54, 0.83, 0.8, 0.0, 0.0, 0.0, 0.0, 0.0, 0.93, 7.19, 7.19, 8.3, 9.48, 9.48, 9.48, 8.59, 8.87, 8.31, 8.31, 6.4, 7.1, 7.93, 10.12, 11.33, 11.33, 11.68, 12.65, 13.59, 13.59, 13.99, 14.84, 13.99, 13.59, 13.59, 13.99, 13.99, 14.55, 14.55, 14.47, 14.03, 14.03, 14.03, 13.59, 13.67, 13.67, 13.67, 13.59, 14.03, 14.03, 13.19, 13.19, 11.99, 9.2, 5.9, 5.2, 11.99, 13.23, 12.3, 11.12, 8.85, 7.24, 6.71, 3.82, 1.67, 1.32, 1.2, 1.05, 0.84, 0.0, 0.0, 0.0, 0.0, 0.0, 1.4, 1.47, 0.89, 1.75, 2.57, 2.7, 3.65, 3.51, 3.6, 4.89, 6.19, 4.67, 1.2, 1.11, 3.33, 4.53, 5.15, 4.98, 5.15, 4.81, 4.1, 2.87, 2.18, 1.55, 0.75, 0.0, 0.0, 0.0, 0.0, 0.0, 0.0, 0.0, 0.0, 0.0, 7.19, 7.19, 8.3, 9.17, 9.48, 9.48, 8.59, 8.87, 8.05, 6.4, 7.1, 7.1, 9.16, 9.16, 11.33, 11.33, 11.68, 12.65, 13.59, 13.59, 13.59, 13.59, 13.99, 13.99, 13.59, 13.99, 13.99, 13.99, 14.47, 14.47, 14.03, 13.59, 13.59, 13.59, 13.59, 13.67, 13.67, 13.59, 13.59, 13.59, 12.79, 12.27, 11.53, 9.67, 7.59, 7.78, 10.99, 11.9, 10.82, 9.48, 9.48, 7.51, 6.97, 3.98, 1.75, 1.32, 1.4, 1.05, 1.0, 0.0, 0.0, 0.0, 0.0, 0.0, 1.32, 1.4, 1.84, 1.33, 2.69, 3.49, 3.65, 3.36, 2.52, 3.6, 5.92, 6.36, 6.62, 4.32, 4.47, 4.87, 5.02, 4.94, 4.55, 3.73, 3.04, 2.18, 1.51, 0.76, 0.0, 0.0, -0.77, -0.8, -0.8, -0.97, 0.0, 0.0, 1.44, 1.44, 7.19, 7.19, 8.3, 9.17, 9.17, 9.48, 8.59, 8.87, 6.88, 6.2, 6.88, 7.1, 9.16, 9.16, 10.12, 11.33, 11.33, 12.65, 12.27, 13.59, 13.59, 13.59, 13.59, 13.59, 13.59, 13.99, 13.99, 13.99, 13.7, 13.7, 14.03, 13.59, 13.59, 13.59, 13.15, 13.59, 13.67, 13.59, 13.59, 13.59, 12.79, 11.9, 11.53, 8.53, 6.45, 6.44, 7.93, 9.8, 8.1, 7.78, 7.78, 6.21, 4.15, 3.65, 3.15, 1.58, 1.2, 1.05, 1.0, 0.0, 0.0, 0.0, 0.0, 0.0, 1.58, 2.69, 2.83, 2.83, 3.8, 4.56, 3.65, 2.83, 2.71, 2.6, 3.85, 5.85, 7.99, 10.2, 8.4, 5.8, 5.11, 5.02, 4.24, 3.66, 2.25, 1.61, 0.81, 0.0, 0.0, -0.8, -0.77, -1.58, -1.77, -1.11, 1.64, 3.19, 3.19, 3.19, 7.19, 7.19, 8.3, 9.17, 9.17, 9.48, 8.59, 6.65, 6.88, 6.88, 6.88, 6.88, 7.93, 9.16, 10.12, 10.43, 10.43, 11.52, 11.52, 13.59, 13.59, 13.59, 13.59, 13.59, 13.19, 13.57, 13.99, 13.99, 13.7, 13.7, 13.28, 13.59, 13.59, 13.15, 13.15, 13.15, 13.67, 13.59, 13.59, 12.39, 12.79, 12.79, 11.53, 10.41, 6.7, 5.6, 8.05, 6.67, 7.24, 6.97, 5.0, 4.15, 3.82, 3.32, 3.15, 1.58, 1.14, 1.14, 1.0, 0.0, 0.0, 0.0, -0.67, 0.0, 1.58, 3.15, 4.0, 4.0, 4.5, 3.63, 2.7, 1.84, 1.76, 2.6, 2.44, 4.1, 6.35, 8.4, 10.3, 8.6, 6.63, 5.83, 4.95, 3.28, 2.41, 1.57, 0.76, 0.0, 0.0, 0.0, -0.86, -1.77, -2.37, 1.71, 3.32, 3.19, 3.19, 3.19, 6.94, 6.94, 7.19, 9.17, 9.17, 8.1, 7.44, 6.65, 5.28, 5.46, 6.88, 6.88, 7.93, 9.16, 10.12, 10.43, 10.43, 11.52, 13.19, 13.19, 13.59, 13.59, 13.59, 13.59, 13.59, 13.19, 13.99, 13.99, 13.99, 13.7, 13.28, 13.28, 12.87, 13.59, 13.15, 13.23, 13.23, 13.59, 13.59, 12.39, 12.79, 12.79, 11.53, 9.17, 6.7, 6.7, 5.6, 7.51, 6.97, 4.8, 4.4, 4.2, 3.15, 3.15, 3.15, 1.32, 1.25, 1.07, 0.0, 0.0, 0.0, 0.0, -0.72, 0.0, 1.4, 3.15, 2.83, 2.83, 3.63, 2.83, 1.39, 1.75, 1.68, 1.69, 2.51, 4.06, 4.87, 6.47, 8.16, 9.64, 9.14, 8.5, 6.5, 5.05, 2.41, 2.25, 1.51, 0.0, 0.0, 0.0, -1.66, 0.0, 0.0, 1.98, 1.64, 3.19, 3.19, 3.19, 6.94, 6.94, 6.94, 7.19, 8.1, 7.19, 7.44, 5.28, 5.28, 5.46, 5.46, 5.46, 7.93, 10.12, 10.12, 10.43, 10.43, 11.52, 13.19, 13.56, 13.56, 13.19, 13.59, 13.59, 13.19, 13.19, 13.19, 13.99, 13.99, 13.99, 13.28, 13.28, 12.87, 13.59, 13.23, 13.23, 13.23, 13.59, 13.59, 12.39, 12.39, 12.79, 11.53, 9.48, 8.85, 8.53, 7.51, 7.51, 7.24, 5.0, 4.6, 4.0, 2.99, 1.58, 1.58, 1.32, 1.32, 1.07, 0.0, 0.0, 0.0, 0.0, 0.0, 0.0, 0.0, 1.47, 1.4, 1.0, 0.94, 1.75, 0.89, 0.93, 1.76, 2.49, 3.29, 3.32, 4.1, 5.02, 5.73, 7.0, 8.37, 9.44, 9.36, 5.8, 4.12, 2.64, 1.51, 0.81, 0.0, 0.0, 0.0, 2.6, 1.91, 1.91, 3.68, 5.0, 5.0, 5.0, 6.94, 6.94, 6.94, 7.19, 7.19, 5.8, 5.8, 5.28, 5.28, 5.46, 3.81, 5.46, 7.69, 10.12, 10.99, 10.99, 10.12, 11.9, 13.15, 13.15, 13.56, 13.56, 13.19, 13.59, 13.59, 13.19, 12.79, 13.99, 13.99, 13.99, 13.7, 13.28, 13.28, 13.67, 13.23, 13.23, 13.23, 13.15, 13.59, 12.39, 12.39, 12.39, 12.39, 9.48, 9.17, 8.53, 8.85, 7.51, 7.51, 5.2, 4.8, 4.2, 2.17, 1.58, 1.58, 1.32, 1.25, 0.0, 0.0, 0.0, 0.0, 0.0, 0.0, 0.0, 0.0, 0.0, 0.0, 0.0, 0.0, 0.94, 0.89, 1.84, 1.76, 2.6, 2.51, 3.42, 3.44, 4.24, 4.98, 5.67, 6.6, 8.6, 9.8, 8.75, 4.88, 3.3, 0.95, 0.86, 0.0, 0.0, 2.82, 2.19, 1.84, 3.39, 4.8, 4.23, 4.23, 4.23, 5.6, 5.6, 6.94, 5.6, 5.8, 5.8, 5.8, 5.28, 3.68, 3.68, 3.81, 6.2, 9.8, 10.99, 10.99, 10.99, 10.99, 12.42, 13.15, 13.15, 13.56, 13.56, 13.59, 13.59, 13.59, 13.19, 12.79, 13.15, 13.57, 13.57, 13.7, 13.7, 13.57, 13.67, 13.23, 13.23, 13.23, 13.15, 12.45, 12.45, 11.99, 12.39, 12.39, 10.73, 9.17, 8.85, 9.17, 7.51, 7.51, 5.2, 4.8, 4.6, 2.28, 2.17, 1.58, 0.0, 0.0, 0.0, 0.0, 0.0, 0.0, 0.0, 0.0, 0.0, 0.0, 0.0, 1.32, 1.4, 1.47, 1.84, 1.84, 1.84, 1.84, 1.76, 2.41, 2.51, 3.19, 3.96, 4.81, 5.67, 5.86, 7.32, 9.77, 10.14, 8.63, 4.31, 2.65, 2.35, 0.0, 2.37, 2.82, 2.19, 3.98, 5.29, 4.8, 4.23, 4.23, 4.23, 5.6, 5.6, 5.6, 5.6, 5.6, 5.8, 4.1, 3.68, 3.68, 1.66, 3.81, 7.69, 9.8, 10.99, 10.99, 10.99, 12.42, 13.15, 13.39, 13.15, 13.15, 13.19, 13.19, 13.19, 13.19, 13.19, 12.79, 13.15, 13.15, 13.15, 13.15, 13.57, 13.57, 13.67, 13.23, 13.23, 13.15, 13.15, 12.45, 12.45, 11.99, 11.99, 12.39, 10.73, 10.37, 8.85, 9.17, 7.78, 7.24, 5.2, 4.8, 4.6, 4.4, 2.28, 1.58, 0.0, 0.0, 0.0, 0.0, 0.0, 0.0, 0.0, 0.0, 0.0, 0.0, 0.0, 1.07, 1.95, 1.84, 1.94, 0.93, 0.85, 1.76, 1.69, 1.76, 2.51, 3.42, 4.06, 4.93, 5.8, 5.67, 6.52, 7.93, 9.77, 9.71, 8.18, 5.48, 3.08, 2.42, 1.84, 2.71, 2.6, 3.82, 3.25, 2.82, 4.05, 4.05, 4.05, 5.6, 5.4, 5.6, 5.6, 3.96, 4.1, 4.1, 1.83, 1.66, 1.66, 5.46, 8.66, 10.12, 10.99, 10.65, 11.53, 12.03, 12.74, 12.74, 13.15, 13.15, 12.27, 12.27, 13.56, 13.56, 13.56, 12.79, 12.79, 12.39, 11.99, 12.72, 12.72, 13.15, 13.67, 13.23, 12.79, 12.71, 12.04, 12.04, 12.04, 12.45, 11.99, 11.99, 10.73, 10.37, 9.17, 9.17, 8.85, 7.24, 5.2, 4.8, 4.6, 4.4, 1.75, 0.0, 0.0, 0.0, 0.0, 0.0, 0.0, 0.0, 0.0, 0.0, 0.0, -0.88, 0.0, 1.18, 1.84, 1.95, 1.84, 1.94, 0.89, 0.93, 0.85, 1.76, 2.41, 3.29, 4.17, 5.06, 5.8, 5.8, 5.8, 6.52, 7.32, 8.0, 9.42, 7.71, 4.25, 3.36, 3.11, 1.76, 2.49, 3.98, 3.98, 3.25, 4.4, 4.4, 4.4, 5.4, 3.32, 3.32, 3.96, 3.96, 3.96, 1.83, 1.83, 1.66, 3.68, 6.2, 9.8, 11.17, 10.12, 11.53, 11.16, 12.33, 12.74, 13.15, 13.15, 11.9, 11.9, 12.81, 12.81, 13.56, 13.56, 12.79, 12.79, 12.39, 12.39, 11.99, 12.72, 12.72, 13.23, 12.79, 12.79, 12.71, 12.04, 12.04, 12.04, 12.04, 11.6, 11.99, 10.73, 10.37, 9.17, 8.85, 8.85, 7.24, 5.2, 4.8, 4.4, 2.39, 0.0, 0.0, 0.0, 0.0, 0.0, 0.0, 0.0, 0.0, 0.0, 0.0, -0.89, -0.96, 0.0, 0.0, 1.01, 1.84, 2.83, 3.45, 2.83, 2.97, 2.04, 1.84, 2.6, 4.13, 5.0, 4.87, 5.06, 4.93, 5.06, 4.93, 4.76, 8.47, 9.4, 6.53, 3.68, 2.28, 2.35, 3.3, 3.11, 3.65, 5.29, 6.14, 6.64, 6.64, 6.64, 3.32, 3.32, 3.32, 3.32, 3.44, 1.77, 1.77, 0.0, 1.61, 3.68, 6.2, 9.8, 11.17, 10.82, 11.16, 11.16, 12.74, 12.74, 13.15, 12.79, 11.9, 11.9, 12.81, 12.81, 12.81, 12.42, 11.9, 12.39, 12.39, 12.39, 11.99, 11.99, 12.72, 12.72, 12.79, 12.71, 12.71, 11.62, 11.62, 12.04, 12.04, 11.6, 10.37, 10.37, 10.37, 9.17, 8.85, 8.85, 7.24, 5.2, 4.8, 2.49, 2.02, 0.0, 0.0, 0.0, 0.0, 0.0, 0.0, 0.0, 0.0, 0.0, 0.0, 0.0, -0.96, -0.96, 0.0, 0.0, 2.09, 2.83, 2.98, 3.63, 3.63, 3.63, 2.83, 4.4, 5.14, 5.0, 5.0, 4.01, 4.87, 4.87, 4.06, 5.55, 7.35, 8.08, 5.13, 3.12, 2.82, 2.71, 2.35, 3.45, 4.44, 4.96, 5.72, 7.28, 7.28, 7.28, 3.32, 3.32, 3.32, 1.71, 1.77, 1.77, 0.0, 0.0, 1.61, 3.68, 7.13, 9.8, 9.8, 10.82, 10.47, 11.99, 12.39, 12.39, 12.39, 11.9, 11.9, 11.9, 12.81, 12.81, 12.81, 12.42, 11.9, 11.53, 11.53, 11.16, 11.16, 11.99, 11.5, 12.45, 12.04, 12.27, 12.27, 11.62, 11.62, 11.62, 11.6, 11.6, 10.37, 10.37, 9.17, 9.17, 8.85, 8.85, 5.4, 5.2, 2.6, 2.49, 0.0, 0.0, 0.0, 0.0, 0.0, 0.0, 0.0, 0.0, 0.0, 0.0, 0.0, 0.0, -1.03, -1.7, -0.96, 0.0, 1.07, 1.14, 2.06, 1.84, 2.83, 4.56, 4.56, 5.46, 5.29, 5.14, 4.8, 4.13, 4.3, 4.87, 4.13, 5.42, 7.35, 6.36, 4.12, 4.38, 4.28, 3.97, 3.39, 3.88, 3.63, 3.8, 5.15, 6.99, 6.99, 6.99, 1.71, 1.71, 1.71, 1.71, 1.71, 0.0, 0.0, 0.0, 1.83, 3.68, 6.9, 9.48, 9.48, 10.47, 11.12, 11.99, 12.39, 12.39, 11.53, 11.9, 11.9, 11.9, 12.42, 12.42, 12.42, 12.42, 11.53, 11.53, 11.53, 11.16, 10.79, 10.47, 11.5, 12.45, 12.04, 11.62, 11.62, 11.62, 11.21, 11.2, 11.2, 11.2, 10.37, 10.37, 9.17, 8.85, 8.85, 7.51, 5.6, 2.82, 2.6, 0.0, 0.0, 0.0, 0.0, 0.0, 0.0, 0.0, 0.0, 0.0, 0.0, 0.0, 0.0, 0.0, -0.95, -0.89, -0.96, 0.0, 0.0, 0.0, 0.0, 0.94, 1.94, 2.7, 3.49, 3.49, 4.4, 4.25, 4.13, 4.13, 4.3, 4.87, 5.73, 6.16, 7.97, 6.72, 6.54, 5.6, 5.35, 4.8, 5.0, 4.6, 3.49, 3.45, 4.94, 6.6, 6.6, 6.6, 1.64, 1.64, 1.71, 1.71, 0.0, 0.0, 0.0, 0.0, 1.77, 3.56, 5.8, 8.1, 9.17, 10.12, 11.12, 11.5, 11.88, 12.39, 11.53, 11.53, 11.9, 12.42, 12.42, 12.42, 12.42, 12.42, 11.28, 12.03, 11.16, 11.16, 10.79, 10.47, 10.47, 11.5, 12.04, 11.62, 11.62, 11.62, 10.8, 10.8, 11.2, 11.2, 10.01, 10.01, 8.85, 8.85, 8.85, 6.94, 5.6, 2.82, 2.6, 2.49, 0.0, 0.0, 0.0, 0.0, 0.0, 0.0, 0.0, 0.0, 0.0, 0.0, 0.0, -1.01, -1.01, -0.89, -0.96, -2.16, -0.96, 0.0, 0.0, 0.94, 0.99, 1.75, 2.7, 2.7, 2.7, 3.36, 3.25, 4.13, 4.13, 5.72, 5.67, 6.35, 7.53, 7.39, 8.51, 6.21, 4.4, 4.6, 4.31, 4.5, 3.78, 4.34, 6.32, 8.37, 8.37, 8.37, 1.64, 1.64, 1.64, 0.0, 0.0, 0.0, 0.0, 0.0, 1.77, 3.96, 5.8, 8.1, 9.17, 9.17, 10.12, 11.5, 11.88, 12.39, 11.53, 11.53, 12.03, 12.42, 12.42, 12.42, 11.64, 11.28, 11.28, 10.91, 10.91, 10.3, 10.79, 11.16, 10.47, 11.12, 11.12, 10.73, 11.62, 10.8, 10.8, 10.8, 11.2, 10.01, 10.01, 10.01, 8.85, 8.85, 8.85, 6.94, 5.6, 2.82, 2.6, 0.0, 0.0, 0.0, 0.0, 0.0, 0.0, 0.0, 0.0, 0.0, 0.0, 0.0, -1.01, -1.01, -1.01, -0.95, -1.98, -2.16, -2.99, -1.25, 0.0, 0.0, 0.94, 1.84, 2.83, 2.57, 2.57, 2.59, 3.36, 3.51, 5.0, 5.06, 4.81, 5.62, 6.13, 7.57, 7.6, 6.4, 4.4, 3.69, 4.31, 4.5, 4.31, 4.56, 6.87, 8.67, 8.67, 8.67, 1.44, 1.44, 0.0, 0.0, 0.0, 0.0, 0.0, 0.0, 1.71, 3.96, 5.6, 6.67, 8.1, 9.17, 10.12, 10.47, 11.16, 11.53, 12.03, 12.03, 12.03, 11.64, 12.13, 12.13, 11.28, 11.28, 11.28, 10.91, 10.91, 9.96, 9.96, 11.16, 10.47, 10.12, 10.73, 10.73, 10.35, 9.66, 9.66, 9.66, 10.01, 10.01, 8.85, 8.53, 8.53, 8.53, 8.85, 5.6, 5.6, 5.2, 2.6, 2.49, 0.0, 0.0, 0.0, 0.0, 0.0, 0.0, 0.0, 0.0, 0.0, -1.18, -1.01, -1.07, -1.07, -1.96, -1.98, -3.22, -3.91, -2.54, -1.14, 0.0, 1.0, 2.98, 2.69, 3.63, 3.63, 3.63, 3.49, 4.25, 4.3, 4.17, 3.96, 4.13, 4.91, 6.81, 8.0, 6.8, 5.6, 3.69, 3.69, 4.5, 4.5, 5.06, 6.32, 8.67, 8.67, 8.67, 0.0, 0.0, 0.0, 0.0, 0.0, 0.0, 0.0, 0.0, 1.71, 1.77, 3.96, 5.8, 8.1, 8.1, 9.17, 11.16, 10.65, 10.91, 11.28, 11.28, 11.75, 12.13, 12.13, 12.13, 11.09, 10.52, 10.18, 10.18, 10.91, 9.96, 9.96, 10.3, 10.47, 10.12, 9.77, 9.77, 10.35, 9.66, 9.66, 9.66, 9.66, 8.53, 8.53, 8.53, 8.53, 8.53, 7.24, 5.4, 5.4, 5.0, 2.6, 2.49, 0.0, 0.0, 0.0, 0.0, 0.0, 0.0, 0.0, 0.0, 0.0, -1.25, -1.07, -1.07, -1.07, -1.96, -1.84, -3.0, -4.47, -3.55, -1.55, 0.0, 1.0, 1.95, 2.69, 2.83, 3.32, 3.49, 3.65, 4.25, 4.13, 3.42, 3.23, 3.25, 4.04, 6.47, 8.0, 7.0, 5.99, 4.5, 4.31, 4.5, 5.09, 4.92, 5.82, 8.6, 8.6, 8.6, 0.0, 0.0, 0.0, 0.0, 0.0, 0.0, 0.0, 0.0, 0.0, 1.77, 3.44, 5.6, 7.19, 8.3, 9.17, 10.3, 10.91, 10.18, 10.73, 11.09, 11.09, 11.09, 11.44, 11.44, 11.09, 10.18, 10.18, 10.18, 9.84, 9.96, 9.96, 10.3, 9.48, 10.12, 9.77, 9.77, 8.53, 8.53, 8.53, 8.53, 9.66, 8.53, 7.24, 7.24, 6.97, 6.97, 6.97, 5.4, 5.2, 4.8, 2.6, 2.49, 2.49, 0.0, 0.0, 0.0, 0.0, 0.0, 0.0, 0.0, 0.0, -1.25, -1.07, -1.14, -1.14, -2.09, -1.96, -3.2, -3.97, -4.22, -3.4, -1.26, 1.0, 1.47, 1.95, 1.84, 2.57, 2.7, 2.7, 2.59, 3.39, 3.29, 3.32, 3.14, 4.13, 6.14, 7.12, 7.0, 5.99, 5.43, 4.31, 4.5, 5.3, 5.09, 4.96, 7.6, 7.6, 7.6, 0.0, 0.0, 0.0, 0.0, 0.0, 0.0, 0.0, 0.0, 0.0, 1.77, 3.44, 4.93, 6.43, 8.3, 9.17, 9.48, 10.18, 10.18, 10.73, 11.09, 11.09, 11.09, 11.09, 11.09, 10.52, 10.18, 10.18, 10.18, 9.17, 9.17, 9.96, 9.48, 9.17, 8.85, 8.85, 9.77, 8.53, 8.53, 8.22, 8.22, 8.53, 7.24, 6.97, 6.97, 6.71, 6.71, 5.0, 5.0, 4.15, 3.98, 2.02, 2.02, 2.02, 0.0, 0.0, 0.0, 0.0, 0.0, 0.0, 0.0, -1.32, -1.32, -1.14, -1.14, -1.14, -2.09, -1.96, -2.99, -4.22, -4.22, -3.77, -1.73, 0.0, 0.0, 1.0, 0.94, 0.99, 1.84, 1.84, 1.76, 2.49, 2.51, 3.19, 4.1, 4.71, 6.43, 7.63, 6.8, 6.4, 6.0, 5.4, 5.0, 5.3, 5.0, 4.6, 6.63, 6.63, 6.63, 0.0, 0.0, 0.0, 0.0, 0.0, 0.0, 0.0, 0.0, 0.0, 1.77, 3.44, 4.93, 6.43, 8.3, 9.17, 9.48, 10.18, 10.18, 10.73, 11.09, 11.09, 11.09, 11.09, 11.09, 10.52, 10.18, 10.18, 10.18, 9.17, 9.17, 9.96, 9.48, 9.17, 8.85, 8.85, 9.77, 8.53, 8.53, 8.22, 8.22, 8.53, 7.24, 6.97, 6.97, 6.71, 6.71, 5.0, 5.0, 4.15, 3.98, 2.02, 2.02, 2.02, 0.0, 0.0, 0.0, 0.0, 0.0, 0.0, 0.0, -1.32, -1.32, -1.14, -1.14, -1.14, -2.09, -1.96, -2.99, -4.22, -4.22, -3.77, -1.73, 0.0, 0.0, 1.0, 0.94, 1.75, 1.84, 1.84, 1.76, 2.49, 2.6, 3.42, 4.21, 4.81, 5.67, 7.54, 7.97, 7.21, 6.76, 6.53, 5.86, 5.2, 5.2, 5.06, 6.32, 6.32, 6.32]}]